Time,TemperatureF,DewpointF,PressureIn,WindDirection,WindDirectionDegrees,WindSpeedMPH,WindSpeedGustMPH,Humidity,HourlyPrecipIn,Conditions,Clouds,dailyrainin,SolarRadiationWatts/m^2,SoftwareType,DateUTC
2013-11-27 00:01:00,39.5,38.5,29.79,West,276,1.0,2.0,96,0.08,,,0.00,520,WeatherCatV1.22B15,2013-11-27 05:01:00,
2013-11-27 00:02:00,39.6,38.5,29.78,West,276,1.0,2.0,96,0.08,,,0.00,520,WeatherCatV1.22B15,2013-11-27 05:02:00,
2013-11-27 00:06:00,39.9,38.8,29.77,West,276,1.0,2.0,96,0.14,,,0.01,520,WeatherCatV1.22B15,2013-11-27 05:06:00,
2013-11-27 00:08:00,39.9,38.8,29.77,West,276,1.0,1.0,96,0.14,,,0.01,520,WeatherCatV1.22B15,2013-11-27 05:08:00,
2013-11-27 00:11:00,40.4,39.3,29.76,West,275,1.0,2.0,96,0.14,,,0.03,520,WeatherCatV1.22B15,2013-11-27 05:11:00,
2013-11-27 00:13:00,40.6,39.5,29.76,West,276,2.0,2.0,96,0.14,,,0.03,520,WeatherCatV1.22B15,2013-11-27 05:13:00,
2013-11-27 00:16:00,40.9,39.8,29.75,West,276,1.0,2.0,96,0.10,,,0.03,520,WeatherCatV1.22B15,2013-11-27 05:16:00,
2013-11-27 00:17:00,40.9,39.8,29.75,West,276,1.0,2.0,96,0.09,,,0.03,520,WeatherCatV1.22B15,2013-11-27 05:17:00,
2013-11-27 00:18:00,41.0,40.0,29.75,West,275,1.0,2.0,96,0.08,,,0.04,520,WeatherCatV1.22B15,2013-11-27 05:18:00,
2013-11-27 00:21:00,41.2,40.2,29.74,West,276,1.0,4.0,96,0.08,,,0.04,520,WeatherCatV1.22B15,2013-11-27 05:21:00,
2013-11-27 00:22:00,41.2,40.2,29.74,West,276,1.0,4.0,96,0.08,,,0.04,520,WeatherCatV1.22B15,2013-11-27 05:22:00,
2013-11-27 00:23:00,41.4,40.3,29.74,West,276,1.0,2.0,96,0.11,,,0.05,520,WeatherCatV1.22B15,2013-11-27 05:23:00,
2013-11-27 00:26:00,41.5,40.5,29.73,West,276,2.0,2.0,96,0.17,,,0.05,520,WeatherCatV1.22B15,2013-11-27 05:26:00,
2013-11-27 00:27:00,41.6,40.5,29.73,West,276,1.0,2.0,96,0.17,,,0.06,520,WeatherCatV1.22B15,2013-11-27 05:27:00,
2013-11-27 00:28:00,41.6,40.5,29.74,West,276,1.0,3.0,96,0.17,,,0.06,520,WeatherCatV1.22B15,2013-11-27 05:28:00,
2013-11-27 00:30:00,41.7,40.6,29.73,West,276,2.0,2.0,96,0.16,,,0.06,520,WeatherCatV1.22B15,2013-11-27 05:30:00,
2013-11-27 00:31:00,41.7,40.6,29.74,West,275,3.0,3.0,96,0.16,,,0.07,520,WeatherCatV1.22B15,2013-11-27 05:31:00,
2013-11-27 00:32:00,41.7,40.6,29.73,West,276,1.0,3.0,96,0.16,,,0.07,520,WeatherCatV1.22B15,2013-11-27 05:32:00,
2013-11-27 00:34:00,41.9,40.8,29.73,West,276,3.0,3.0,96,0.14,,,0.07,520,WeatherCatV1.22B15,2013-11-27 05:34:00,
2013-11-27 00:35:00,41.9,40.8,29.73,West,276,1.0,3.0,96,0.12,,,0.07,520,WeatherCatV1.22B15,2013-11-27 05:35:00,
2013-11-27 00:36:00,42.0,40.9,29.73,West,276,2.0,3.0,96,0.09,,,0.07,520,WeatherCatV1.22B15,2013-11-27 05:36:00,
2013-11-27 00:37:00,42.0,40.9,29.73,West,276,1.0,3.0,96,0.09,,,0.07,520,WeatherCatV1.22B15,2013-11-27 05:37:00,
2013-11-27 00:39:00,42.1,41.0,29.73,West,276,1.0,2.0,96,0.08,,,0.08,520,WeatherCatV1.22B15,2013-11-27 05:39:00,
2013-11-27 00:40:00,42.2,41.1,29.73,West,276,1.0,3.0,96,0.28,,,0.09,520,WeatherCatV1.22B15,2013-11-27 05:40:00,
2013-11-27 00:41:00,42.2,41.1,29.73,West,276,1.0,3.0,96,0.28,,,0.09,520,WeatherCatV1.22B15,2013-11-27 05:41:00,
2013-11-27 00:42:00,42.3,41.2,29.73,West,275,2.0,3.0,96,0.28,,,0.09,520,WeatherCatV1.22B15,2013-11-27 05:42:00,
2013-11-27 00:45:00,42.4,41.3,29.72,West,276,1.0,1.0,96,0.21,,,0.11,520,WeatherCatV1.22B15,2013-11-27 05:45:00,
2013-11-27 00:46:00,42.4,41.3,29.72,West,276,1.0,1.0,96,0.21,,,0.11,520,WeatherCatV1.22B15,2013-11-27 05:46:00,
2013-11-27 00:47:00,42.4,41.3,29.72,West,276,1.0,2.0,96,0.21,,,0.11,520,WeatherCatV1.22B15,2013-11-27 05:47:00,
2013-11-27 00:51:00,42.5,41.4,29.70,West,276,1.0,1.0,96,0.26,,,0.13,520,WeatherCatV1.22B15,2013-11-27 05:51:00,
2013-11-27 00:52:00,42.5,41.4,29.70,West,276,1.0,2.0,96,0.26,,,0.13,520,WeatherCatV1.22B15,2013-11-27 05:52:00,
2013-11-27 00:53:00,42.5,41.4,29.70,West,276,1.0,2.0,96,0.25,,,0.14,520,WeatherCatV1.22B15,2013-11-27 05:53:00,
2013-11-27 00:56:00,42.7,41.6,29.70,West,276,0.0,2.0,96,0.28,,,0.15,520,WeatherCatV1.22B15,2013-11-27 05:56:00,
2013-11-27 00:57:00,42.7,41.6,29.70,West,276,1.0,2.0,96,0.26,,,0.16,520,WeatherCatV1.22B15,2013-11-27 05:57:00,
2013-11-27 00:58:00,42.7,41.6,29.69,West,275,1.0,2.0,96,0.26,,,0.16,520,WeatherCatV1.22B15,2013-11-27 05:58:00,
2013-11-27 01:01:00,42.8,41.7,29.69,West,276,0.0,1.0,96,0.21,,,0.17,520,WeatherCatV1.22B15,2013-11-27 06:01:00,
2013-11-27 01:02:00,42.8,41.7,29.69,West,276,1.0,2.0,96,0.29,,,0.18,520,WeatherCatV1.22B15,2013-11-27 06:02:00,
2013-11-27 01:04:00,42.9,41.8,29.68,West,276,1.0,2.0,96,0.25,,,0.19,520,WeatherCatV1.22B15,2013-11-27 06:04:00,
2013-11-27 01:06:00,43.0,41.9,29.68,West,276,1.0,2.0,96,0.25,,,0.19,520,WeatherCatV1.22B15,2013-11-27 06:06:00,
2013-11-27 01:07:00,43.1,42.0,29.68,West,276,2.0,2.0,96,0.23,,,0.20,520,WeatherCatV1.22B15,2013-11-27 06:07:00,
2013-11-27 01:08:00,43.1,42.0,29.68,West,276,2.0,2.0,96,0.23,,,0.20,520,WeatherCatV1.22B15,2013-11-27 06:08:00,
2013-11-27 01:09:00,43.2,42.1,29.68,West,276,2.0,2.0,96,0.27,,,0.21,520,WeatherCatV1.22B15,2013-11-27 06:09:00,
2013-11-27 01:11:00,43.3,42.2,29.68,West,275,1.0,2.0,96,0.25,,,0.21,520,WeatherCatV1.22B15,2013-11-27 06:11:00,
2013-11-27 01:12:00,43.3,42.2,29.68,West,276,1.0,2.0,96,0.24,,,0.22,520,WeatherCatV1.22B15,2013-11-27 06:12:00,
2013-11-27 01:13:00,43.4,42.3,29.68,West,276,1.0,2.0,96,0.24,,,0.22,520,WeatherCatV1.22B15,2013-11-27 06:13:00,
2013-11-27 01:14:00,43.4,42.3,29.68,West,276,2.0,2.0,96,0.19,,,0.22,520,WeatherCatV1.22B15,2013-11-27 06:14:00,
2013-11-27 01:16:00,43.6,42.5,29.68,West,276,0.0,1.0,96,0.15,,,0.23,520,WeatherCatV1.22B15,2013-11-27 06:16:00,
2013-11-27 01:17:00,43.7,42.6,29.68,West,276,1.0,1.0,96,0.15,,,0.23,520,WeatherCatV1.22B15,2013-11-27 06:17:00,
2013-11-27 01:18:00,43.7,42.6,29.68,West,275,1.0,1.0,96,0.22,,,0.24,520,WeatherCatV1.22B15,2013-11-27 06:18:00,
2013-11-27 01:20:00,43.7,42.6,29.68,West,275,0.0,2.0,96,0.22,,,0.24,520,WeatherCatV1.22B15,2013-11-27 06:20:00,
2013-11-27 01:22:00,43.8,42.7,29.68,West,276,1.0,1.0,96,0.26,,,0.25,520,WeatherCatV1.22B15,2013-11-27 06:22:00,
2013-11-27 01:23:00,43.8,42.7,29.68,West,276,0.0,1.0,96,0.26,,,0.25,520,WeatherCatV1.22B15,2013-11-27 06:23:00,
2013-11-27 01:25:00,43.8,42.7,29.68,West,276,1.0,1.0,96,0.33,,,0.27,520,WeatherCatV1.22B15,2013-11-27 06:25:00,
2013-11-27 01:27:00,43.9,42.8,29.68,West,275,0.0,2.0,96,0.46,,,0.28,520,WeatherCatV1.22B15,2013-11-27 06:27:00,
2013-11-27 01:28:00,44.0,42.9,29.68,West,276,1.0,1.0,96,0.55,,,0.29,520,WeatherCatV1.22B15,2013-11-27 06:28:00,
2013-11-27 01:30:00,44.1,43.0,29.67,West,276,1.0,2.0,96,0.46,,,0.31,520,WeatherCatV1.22B15,2013-11-27 06:30:00,
2013-11-27 01:32:00,44.2,43.1,29.66,West,276,1.0,2.0,96,0.35,,,0.32,520,WeatherCatV1.22B15,2013-11-27 06:32:00,
2013-11-27 01:33:00,44.3,43.2,29.66,West,277,2.0,2.0,96,0.32,,,0.33,520,WeatherCatV1.22B15,2013-11-27 06:33:00,
2013-11-27 01:34:00,44.3,43.2,29.66,West,276,1.0,2.0,96,0.32,,,0.33,520,WeatherCatV1.22B15,2013-11-27 06:34:00,
2013-11-27 01:35:00,44.4,43.3,29.66,West,275,1.0,2.0,96,0.43,,,0.34,520,WeatherCatV1.22B15,2013-11-27 06:35:00,
2013-11-27 01:38:00,44.5,43.4,29.65,West,275,3.0,3.0,96,0.38,,,0.35,520,WeatherCatV1.22B15,2013-11-27 06:38:00,
2013-11-27 01:39:00,44.6,43.5,29.65,West,277,1.0,4.0,96,0.37,,,0.36,520,WeatherCatV1.22B15,2013-11-27 06:39:00,
2013-11-27 01:40:00,44.6,43.5,29.65,West,275,1.0,2.0,96,0.39,,,0.37,520,WeatherCatV1.22B15,2013-11-27 06:40:00,
2013-11-27 01:43:00,44.8,43.7,29.65,West,276,0.0,2.0,96,0.37,,,0.39,520,WeatherCatV1.22B15,2013-11-27 06:43:00,
2013-11-27 01:44:00,44.8,43.7,29.65,West,276,1.0,1.0,96,0.37,,,0.39,520,WeatherCatV1.22B15,2013-11-27 06:44:00,
2013-11-27 01:45:00,44.9,43.8,29.65,West,277,1.0,2.0,96,0.27,,,0.39,520,WeatherCatV1.22B15,2013-11-27 06:45:00,
2013-11-27 01:48:00,45.1,44.0,29.65,West,277,1.0,2.0,96,0.24,,,0.41,520,WeatherCatV1.22B15,2013-11-27 06:48:00,
2013-11-27 01:49:00,45.1,44.0,29.64,West,277,0.0,2.0,96,0.24,,,0.41,520,WeatherCatV1.22B15,2013-11-27 06:49:00,
2013-11-27 01:50:00,45.1,44.0,29.64,West,276,1.0,2.0,96,0.32,,,0.42,520,WeatherCatV1.22B15,2013-11-27 06:50:00,
2013-11-27 01:51:00,45.2,44.1,29.64,West,277,0.0,1.0,96,0.32,,,0.42,520,WeatherCatV1.22B15,2013-11-27 06:51:00,
2013-11-27 01:53:00,45.3,44.2,29.63,West,275,1.0,1.0,96,0.31,,,0.43,520,WeatherCatV1.22B15,2013-11-27 06:53:00,
2013-11-27 01:54:00,45.4,44.3,29.63,West,276,1.0,2.0,96,0.31,,,0.44,520,WeatherCatV1.22B15,2013-11-27 06:54:00,
2013-11-27 01:55:00,45.4,44.3,29.63,West,276,1.0,2.0,96,0.31,,,0.44,520,WeatherCatV1.22B15,2013-11-27 06:55:00,
2013-11-27 01:56:00,45.5,44.4,29.63,West,276,1.0,2.0,96,0.24,,,0.45,520,WeatherCatV1.22B15,2013-11-27 06:56:00,
2013-11-27 01:58:00,45.6,44.5,29.62,West,276,2.0,2.0,96,0.24,,,0.45,520,WeatherCatV1.22B15,2013-11-27 06:58:00,
2013-11-27 01:59:00,45.7,44.6,29.62,West,277,2.0,3.0,96,0.29,,,0.46,520,WeatherCatV1.22B15,2013-11-27 06:59:00,
2013-11-27 02:00:00,45.8,44.7,29.62,West,275,2.0,3.0,96,0.29,,,0.46,520,WeatherCatV1.22B15,2013-11-27 07:00:00,
2013-11-27 02:01:00,45.9,44.8,29.62,West,277,2.0,2.0,96,0.17,,,0.46,520,WeatherCatV1.22B15,2013-11-27 07:01:00,
2013-11-27 02:03:00,46.0,44.9,29.61,West,276,1.0,2.0,96,0.17,,,0.47,520,WeatherCatV1.22B15,2013-11-27 07:03:00,
2013-11-27 02:05:00,46.1,45.0,29.61,West,276,1.0,2.0,96,0.20,,,0.48,520,WeatherCatV1.22B15,2013-11-27 07:05:00,
2013-11-27 02:06:00,46.1,45.0,29.61,West,276,1.0,2.0,96,0.20,,,0.48,520,WeatherCatV1.22B15,2013-11-27 07:06:00,
2013-11-27 02:08:00,46.2,45.1,29.60,West,277,1.0,3.0,96,0.26,,,0.49,520,WeatherCatV1.22B15,2013-11-27 07:08:00,
2013-11-27 02:10:00,46.2,45.1,29.60,West,276,1.0,2.0,96,0.39,,,0.50,520,WeatherCatV1.22B15,2013-11-27 07:10:00,
2013-11-27 02:11:00,46.2,45.1,29.59,West,276,1.0,2.0,96,0.39,,,0.51,520,WeatherCatV1.22B15,2013-11-27 07:11:00,
2013-11-27 02:12:00,46.2,45.1,29.59,West,276,2.0,2.0,96,0.38,,,0.52,520,WeatherCatV1.22B15,2013-11-27 07:12:00,
2013-11-27 02:13:00,46.2,45.1,29.59,West,277,2.0,3.0,96,0.34,,,0.52,520,WeatherCatV1.22B15,2013-11-27 07:13:00,
2013-11-27 02:15:00,46.2,45.1,29.58,West,277,2.0,2.0,96,0.31,,,0.53,520,WeatherCatV1.22B15,2013-11-27 07:15:00,
2013-11-27 02:16:00,46.3,45.2,29.58,West,277,1.0,2.0,96,0.24,,,0.54,520,WeatherCatV1.22B15,2013-11-27 07:16:00,
2013-11-27 02:17:00,46.3,45.2,29.58,West,277,1.0,2.0,96,0.24,,,0.54,520,WeatherCatV1.22B15,2013-11-27 07:17:00,
2013-11-27 02:18:00,46.4,45.3,29.58,West,277,1.0,2.0,96,0.31,,,0.55,520,WeatherCatV1.22B15,2013-11-27 07:18:00,
2013-11-27 02:20:00,46.5,45.7,29.58,West,277,2.0,3.0,97,0.24,,,0.55,520,WeatherCatV1.22B15,2013-11-27 07:20:00,
2013-11-27 02:21:00,46.5,45.7,29.58,West,276,1.0,3.0,97,0.21,,,0.55,520,WeatherCatV1.22B15,2013-11-27 07:21:00,
2013-11-27 02:22:00,46.5,45.7,29.58,West,277,1.0,2.0,97,0.21,,,0.56,520,WeatherCatV1.22B15,2013-11-27 07:22:00,
2013-11-27 02:23:00,46.6,45.8,29.57,West,277,2.0,3.0,97,0.21,,,0.56,520,WeatherCatV1.22B15,2013-11-27 07:23:00,
2013-11-27 02:24:00,46.6,45.8,29.57,West,277,1.0,3.0,97,0.21,,,0.56,520,WeatherCatV1.22B15,2013-11-27 07:24:00,
2013-11-27 02:26:00,46.7,45.9,29.56,West,277,2.0,2.0,97,0.14,,,0.57,520,WeatherCatV1.22B15,2013-11-27 07:26:00,
2013-11-27 02:27:00,46.8,46.0,29.56,West,277,2.0,3.0,97,0.14,,,0.57,520,WeatherCatV1.22B15,2013-11-27 07:27:00,
2013-11-27 02:28:00,46.9,46.1,29.56,West,277,1.0,3.0,97,0.14,,,0.57,520,WeatherCatV1.22B15,2013-11-27 07:28:00,
2013-11-27 02:29:00,46.9,46.1,29.55,West,277,2.0,3.0,97,0.14,,,0.57,520,WeatherCatV1.22B15,2013-11-27 07:29:00,
2013-11-27 02:31:00,47.0,46.2,29.55,West,276,0.0,1.0,97,0.15,,,0.58,520,WeatherCatV1.22B15,2013-11-27 07:31:00,
2013-11-27 02:32:00,47.1,46.3,29.55,West,277,0.0,2.0,97,0.22,,,0.58,520,WeatherCatV1.22B15,2013-11-27 07:32:00,
2013-11-27 02:33:00,47.3,46.5,29.55,West,277,1.0,2.0,97,0.22,,,0.59,520,WeatherCatV1.22B15,2013-11-27 07:33:00,
2013-11-27 02:34:00,47.3,46.5,29.55,West,277,1.0,2.0,97,0.22,,,0.59,520,WeatherCatV1.22B15,2013-11-27 07:34:00,
2013-11-27 02:36:00,47.5,46.7,29.54,West,277,1.0,1.0,97,0.19,,,0.60,520,WeatherCatV1.22B15,2013-11-27 07:36:00,
2013-11-27 02:37:00,47.7,46.9,29.54,West,277,0.0,1.0,97,0.19,,,0.60,520,WeatherCatV1.22B15,2013-11-27 07:37:00,
2013-11-27 02:39:00,47.8,47.0,29.54,West,276,0.0,1.0,97,0.25,,,0.61,520,WeatherCatV1.22B15,2013-11-27 07:39:00,
2013-11-27 02:41:00,48.4,47.6,29.54,West,277,1.0,5.0,97,0.33,,,0.62,520,WeatherCatV1.22B15,2013-11-27 07:41:00,
2013-11-27 02:42:00,48.8,48.0,29.53,West,277,1.0,2.0,97,0.33,,,0.63,520,WeatherCatV1.22B15,2013-11-27 07:42:00,
2013-11-27 02:43:00,48.8,48.0,29.53,West,277,0.0,2.0,97,0.33,,,0.63,520,WeatherCatV1.22B15,2013-11-27 07:43:00,
2013-11-27 02:44:00,49.2,48.4,29.53,West,276,1.0,4.0,97,0.20,,,0.63,520,WeatherCatV1.22B15,2013-11-27 07:44:00,
2013-11-27 02:46:00,49.7,48.9,29.52,West,277,0.0,2.0,97,0.17,,,0.64,520,WeatherCatV1.22B15,2013-11-27 07:46:00,
2013-11-27 02:47:00,49.8,49.0,29.53,West,277,0.0,1.0,97,0.20,,,0.64,520,WeatherCatV1.22B15,2013-11-27 07:47:00,
2013-11-27 02:48:00,49.9,49.1,29.53,West,276,0.0,1.0,97,0.20,,,0.65,520,WeatherCatV1.22B15,2013-11-27 07:48:00,
2013-11-27 02:49:00,49.9,49.1,29.53,West,277,0.0,1.0,97,0.44,,,0.65,520,WeatherCatV1.22B15,2013-11-27 07:49:00,
2013-11-27 02:50:00,50.0,49.2,29.53,West,277,1.0,1.0,97,0.44,,,0.66,520,WeatherCatV1.22B15,2013-11-27 07:50:00,
2013-11-27 02:52:00,50.4,49.6,29.52,West,277,0.0,3.0,97,0.58,,,0.68,520,WeatherCatV1.22B15,2013-11-27 07:52:00,
2013-11-27 02:54:00,50.8,50.0,29.52,West,277,0.0,1.0,97,0.47,,,0.70,520,WeatherCatV1.22B15,2013-11-27 07:54:00,
2013-11-27 02:55:00,51.0,50.2,29.52,West,276,0.0,1.0,97,0.45,,,0.71,520,WeatherCatV1.22B15,2013-11-27 07:55:00,
2013-11-27 02:58:00,51.3,50.5,29.51,West,277,2.0,3.0,97,0.35,,,0.72,520,WeatherCatV1.22B15,2013-11-27 07:58:00,
2013-11-27 02:59:00,51.7,50.9,29.51,West,276,1.0,3.0,97,0.43,,,0.73,520,WeatherCatV1.22B15,2013-11-27 07:59:00,
2013-11-27 03:00:00,52.0,51.2,29.51,West,277,1.0,1.0,97,0.72,,,0.74,520,WeatherCatV1.22B15,2013-11-27 08:00:00,
2013-11-27 03:03:00,52.3,51.5,29.50,West,276,1.0,1.0,97,0.59,,,0.78,520,WeatherCatV1.22B15,2013-11-27 08:03:00,
2013-11-27 03:04:00,52.3,51.5,29.50,West,277,2.0,2.0,97,0.57,,,0.78,520,WeatherCatV1.22B15,2013-11-27 08:04:00,
2013-11-27 03:05:00,52.5,51.7,29.50,West,277,0.0,4.0,97,0.42,,,0.79,520,WeatherCatV1.22B15,2013-11-27 08:05:00,
2013-11-27 03:08:00,53.4,52.6,29.50,West,277,2.0,2.0,97,0.69,,,0.82,520,WeatherCatV1.22B15,2013-11-27 08:08:00,
2013-11-27 03:09:00,53.6,52.8,29.50,West,277,3.0,3.0,97,0.51,,,0.83,520,WeatherCatV1.22B15,2013-11-27 08:09:00,
2013-11-27 03:10:00,53.7,52.9,29.50,West,276,3.0,3.0,97,0.45,,,0.83,520,WeatherCatV1.22B15,2013-11-27 08:10:00,
2013-11-27 03:13:00,54.3,53.5,29.49,West,276,0.0,1.0,97,0.20,,,0.84,520,WeatherCatV1.22B15,2013-11-27 08:13:00,
2013-11-27 03:14:00,54.3,53.5,29.49,West,277,1.0,1.0,97,0.20,,,0.84,520,WeatherCatV1.22B15,2013-11-27 08:14:00,
2013-11-27 03:15:00,54.5,53.7,29.49,West,276,2.0,5.0,97,0.16,,,0.84,520,WeatherCatV1.22B15,2013-11-27 08:15:00,
2013-11-27 03:16:00,54.6,53.8,29.49,West,277,1.0,5.0,97,0.15,,,0.84,520,WeatherCatV1.22B15,2013-11-27 08:16:00,
2013-11-27 03:18:00,55.0,54.2,29.50,West,276,1.0,1.0,97,0.15,,,0.85,520,WeatherCatV1.22B15,2013-11-27 08:18:00,
2013-11-27 03:19:00,55.0,54.2,29.49,West,276,0.0,1.0,97,0.17,,,0.85,520,WeatherCatV1.22B15,2013-11-27 08:19:00,
2013-11-27 03:21:00,55.1,54.3,29.49,West,277,0.0,2.0,97,0.17,,,0.86,520,WeatherCatV1.22B15,2013-11-27 08:21:00,
2013-11-27 03:23:00,55.3,54.5,29.49,West,276,2.0,2.0,97,0.25,,,0.87,520,WeatherCatV1.22B15,2013-11-27 08:23:00,
2013-11-27 03:24:00,55.5,54.7,29.49,West,276,0.0,2.0,97,0.25,,,0.88,520,WeatherCatV1.22B15,2013-11-27 08:24:00,
2013-11-27 03:25:00,55.5,54.7,29.49,West,277,0.0,2.0,97,0.25,,,0.88,520,WeatherCatV1.22B15,2013-11-27 08:25:00,
2013-11-27 03:26:00,55.5,54.7,29.49,West,276,1.0,2.0,97,0.25,,,0.88,520,WeatherCatV1.22B15,2013-11-27 08:26:00,
2013-11-27 03:28:00,55.7,54.9,29.49,West,276,1.0,1.0,97,0.38,,,0.90,520,WeatherCatV1.22B15,2013-11-27 08:28:00,
2013-11-27 03:30:00,55.7,54.9,29.49,West,276,0.0,1.0,97,0.30,,,0.91,520,WeatherCatV1.22B15,2013-11-27 08:30:00,
2013-11-27 03:31:00,55.8,55.0,29.49,West,276,0.0,0.0,97,0.30,,,0.91,520,WeatherCatV1.22B15,2013-11-27 08:31:00,
2013-11-27 03:34:00,56.1,55.3,29.49,West,276,1.0,4.0,97,0.25,,,0.92,520,WeatherCatV1.22B15,2013-11-27 08:34:00,
2013-11-27 03:35:00,56.1,55.3,29.48,West,276,0.0,1.0,97,0.21,,,0.92,520,WeatherCatV1.22B15,2013-11-27 08:35:00,
2013-11-27 03:36:00,56.1,55.3,29.48,West,277,1.0,2.0,97,0.15,,,0.92,520,WeatherCatV1.22B15,2013-11-27 08:36:00,
2013-11-27 03:37:00,56.1,55.3,29.48,West,276,1.0,2.0,97,0.12,,,0.92,520,WeatherCatV1.22B15,2013-11-27 08:37:00,
2013-11-27 03:39:00,56.2,55.4,29.48,West,276,0.0,2.0,97,0.12,,,0.93,520,WeatherCatV1.22B15,2013-11-27 08:39:00,
2013-11-27 03:40:00,56.2,55.4,29.48,West,276,1.0,2.0,97,0.12,,,0.93,520,WeatherCatV1.22B15,2013-11-27 08:40:00,
2013-11-27 03:41:00,56.3,55.5,29.48,West,277,1.0,2.0,97,0.12,,,0.93,520,WeatherCatV1.22B15,2013-11-27 08:41:00,
2013-11-27 03:42:00,56.3,55.5,29.48,West,276,0.0,2.0,97,0.12,,,0.93,520,WeatherCatV1.22B15,2013-11-27 08:42:00,
2013-11-27 03:45:00,56.5,55.7,29.47,West,276,1.0,3.0,97,0.24,,,0.95,520,WeatherCatV1.22B15,2013-11-27 08:45:00,
2013-11-27 03:46:00,56.7,55.9,29.47,West,277,1.0,2.0,97,0.37,,,0.96,520,WeatherCatV1.22B15,2013-11-27 08:46:00,
2013-11-27 03:47:00,56.7,55.9,29.47,West,277,0.0,2.0,97,0.37,,,0.96,520,WeatherCatV1.22B15,2013-11-27 08:47:00,
2013-11-27 03:50:00,56.9,56.1,29.46,West,276,1.0,4.0,97,0.36,,,0.98,520,WeatherCatV1.22B15,2013-11-27 08:50:00,
2013-11-27 03:51:00,57.0,56.2,29.46,West,276,2.0,4.0,97,0.46,,,0.99,520,WeatherCatV1.22B15,2013-11-27 08:51:00,
2013-11-27 03:52:00,57.0,56.2,29.46,West,276,3.0,4.0,97,0.60,,,1.00,520,WeatherCatV1.22B15,2013-11-27 08:52:00,
2013-11-27 03:55:00,57.2,56.3,29.45,West,277,1.0,2.0,97,0.74,,,1.05,520,WeatherCatV1.22B15,2013-11-27 08:55:00,
2013-11-27 03:56:00,57.2,56.3,29.45,West,277,0.0,2.0,97,0.96,,,1.06,520,WeatherCatV1.22B15,2013-11-27 08:56:00,
2013-11-27 03:57:00,57.2,56.3,29.46,West,276,3.0,3.0,97,0.46,,,1.07,520,WeatherCatV1.22B15,2013-11-27 08:57:00,
2013-11-27 04:01:00,57.3,56.5,29.46,West,277,0.0,3.0,97,0.28,,,1.08,520,WeatherCatV1.22B15,2013-11-27 09:01:00,
2013-11-27 04:02:00,57.4,56.5,29.46,West,276,0.0,1.0,97,0.18,,,1.09,520,WeatherCatV1.22B15,2013-11-27 09:02:00,
2013-11-27 04:03:00,57.4,56.5,29.45,West,277,0.0,2.0,97,0.18,,,1.09,520,WeatherCatV1.22B15,2013-11-27 09:03:00,
2013-11-27 04:06:00,57.3,56.5,29.45,West,277,0.0,2.0,97,0.36,,,1.12,520,WeatherCatV1.22B15,2013-11-27 09:06:00,
2013-11-27 04:08:00,57.2,56.3,29.44,West,277,0.0,1.0,97,0.34,,,1.13,520,WeatherCatV1.22B15,2013-11-27 09:08:00,
2013-11-27 04:11:00,57.1,56.2,29.44,West,277,0.0,2.0,97,0.19,,,1.15,520,WeatherCatV1.22B15,2013-11-27 09:11:00,
2013-11-27 04:12:00,57.1,56.2,29.44,West,277,0.0,2.0,97,0.19,,,1.15,520,WeatherCatV1.22B15,2013-11-27 09:12:00,
2013-11-27 04:13:00,57.1,56.2,29.43,West,276,1.0,2.0,97,0.44,,,1.16,520,WeatherCatV1.22B15,2013-11-27 09:13:00,
2013-11-27 04:14:00,57.1,56.2,29.43,West,277,0.0,2.0,97,0.44,,,1.16,520,WeatherCatV1.22B15,2013-11-27 09:14:00,
2013-11-27 04:16:00,57.1,56.2,29.43,West,277,0.0,2.0,97,0.40,,,1.18,520,WeatherCatV1.22B15,2013-11-27 09:16:00,
2013-11-27 04:17:00,57.1,56.2,29.43,West,277,0.0,1.0,97,0.40,,,1.18,520,WeatherCatV1.22B15,2013-11-27 09:17:00,
2013-11-27 04:19:00,57.1,56.2,29.43,West,277,2.0,2.0,97,0.45,,,1.20,520,WeatherCatV1.22B15,2013-11-27 09:19:00,
2013-11-27 04:22:00,57.0,56.2,29.42,West,277,1.0,1.0,97,0.55,,,1.22,520,WeatherCatV1.22B15,2013-11-27 09:22:00,
2013-11-27 04:24:00,57.0,56.2,29.43,West,277,0.0,1.0,97,0.37,,,1.23,520,WeatherCatV1.22B15,2013-11-27 09:24:00,
2013-11-27 04:25:00,57.0,56.2,29.43,West,277,1.0,1.0,97,0.24,,,1.23,520,WeatherCatV1.22B15,2013-11-27 09:25:00,
2013-11-27 04:27:00,56.8,56.0,29.43,West,277,0.0,1.0,97,0.23,,,1.24,520,WeatherCatV1.22B15,2013-11-27 09:27:00,
2013-11-27 04:29:00,56.8,56.0,29.43,West,277,0.0,1.0,97,1.09,,,1.28,520,WeatherCatV1.22B15,2013-11-27 09:29:00,
2013-11-27 04:30:00,56.8,56.0,29.42,West,277,0.0,1.0,97,1.11,,,1.29,520,WeatherCatV1.22B15,2013-11-27 09:30:00,
2013-11-27 04:32:00,56.8,56.0,29.43,West,277,0.0,0.0,97,0.63,,,1.31,520,WeatherCatV1.22B15,2013-11-27 09:32:00,
2013-11-27 04:33:00,56.8,56.0,29.43,West,277,0.0,0.0,97,0.63,,,1.32,520,WeatherCatV1.22B15,2013-11-27 09:33:00,
2013-11-27 04:35:00,56.7,55.9,29.44,West,277,0.0,1.0,97,0.50,,,1.34,520,WeatherCatV1.22B15,2013-11-27 09:35:00,
2013-11-27 04:37:00,56.7,55.9,29.44,West,277,1.0,1.0,97,1.14,,,1.36,520,WeatherCatV1.22B15,2013-11-27 09:37:00,
2013-11-27 04:38:00,56.7,55.9,29.44,West,277,0.0,1.0,97,1.08,,,1.38,520,WeatherCatV1.22B15,2013-11-27 09:38:00,
2013-11-27 04:40:00,56.7,55.9,29.44,West,277,0.0,0.0,97,0.80,,,1.41,520,WeatherCatV1.22B15,2013-11-27 09:40:00,
2013-11-27 04:42:00,56.6,55.8,29.43,West,277,0.0,0.0,97,0.91,,,1.45,520,WeatherCatV1.22B15,2013-11-27 09:42:00,
2013-11-27 04:43:00,56.6,55.8,29.44,West,277,0.0,0.0,97,0.85,,,1.45,520,WeatherCatV1.22B15,2013-11-27 09:43:00,
2013-11-27 04:45:00,56.5,55.7,29.43,West,277,0.0,0.0,97,0.92,,,1.49,520,WeatherCatV1.22B15,2013-11-27 09:45:00,
2013-11-27 04:46:00,56.5,55.7,29.43,West,277,0.0,0.0,97,0.77,,,1.50,520,WeatherCatV1.22B15,2013-11-27 09:46:00,
2013-11-27 04:47:00,56.5,55.7,29.43,West,277,0.0,0.0,97,1.01,,,1.52,520,WeatherCatV1.22B15,2013-11-27 09:47:00,
2013-11-27 04:48:00,56.5,55.7,29.43,West,277,0.0,1.0,97,1.14,,,1.54,520,WeatherCatV1.22B15,2013-11-27 09:48:00,
2013-11-27 04:49:00,56.5,55.7,29.43,West,277,1.0,1.0,97,0.86,,,1.54,520,WeatherCatV1.22B15,2013-11-27 09:49:00,
2013-11-27 04:50:00,56.4,55.6,29.42,West,277,1.0,1.0,97,0.77,,,1.57,520,WeatherCatV1.22B15,2013-11-27 09:50:00,
2013-11-27 04:51:00,56.4,55.6,29.42,West,276,0.0,1.0,97,1.13,,,1.58,520,WeatherCatV1.22B15,2013-11-27 09:51:00,
2013-11-27 04:52:00,56.3,55.5,29.42,West,277,0.0,1.0,97,0.86,,,1.60,520,WeatherCatV1.22B15,2013-11-27 09:52:00,
2013-11-27 04:53:00,56.3,55.5,29.42,West,277,0.0,1.0,97,0.91,,,1.61,520,WeatherCatV1.22B15,2013-11-27 09:53:00,
2013-11-27 04:54:00,56.3,55.5,29.42,West,277,0.0,0.0,97,0.79,,,1.62,520,WeatherCatV1.22B15,2013-11-27 09:54:00,
2013-11-27 04:56:00,56.2,55.4,29.42,West,277,0.0,0.0,97,0.69,,,1.64,520,WeatherCatV1.22B15,2013-11-27 09:56:00,
2013-11-27 04:57:00,56.3,55.5,29.42,West,276,0.0,0.0,97,0.48,,,1.65,520,WeatherCatV1.22B15,2013-11-27 09:57:00,
2013-11-27 04:58:00,56.2,55.4,29.42,West,277,0.0,0.0,97,0.59,,,1.66,520,WeatherCatV1.22B15,2013-11-27 09:58:00,
2013-11-27 04:59:00,56.2,55.4,29.42,West,276,0.0,1.0,97,0.85,,,1.68,520,WeatherCatV1.22B15,2013-11-27 09:59:00,
2013-11-27 05:01:00,56.2,55.4,29.42,West,276,1.0,1.0,97,0.63,,,1.69,520,WeatherCatV1.22B15,2013-11-27 10:01:00,
2013-11-27 05:02:00,56.2,55.4,29.42,West,277,1.0,1.0,97,0.55,,,1.71,520,WeatherCatV1.22B15,2013-11-27 10:02:00,
2013-11-27 05:04:00,56.1,55.3,29.42,West,277,0.0,1.0,97,0.67,,,1.72,520,WeatherCatV1.22B15,2013-11-27 10:04:00,
2013-11-27 05:06:00,56.1,55.3,29.42,West,277,0.0,0.0,97,0.40,,,1.74,520,WeatherCatV1.22B15,2013-11-27 10:06:00,
2013-11-27 05:07:00,56.1,55.3,29.41,West,277,0.0,0.0,97,0.22,,,1.74,520,WeatherCatV1.22B15,2013-11-27 10:07:00,
2013-11-27 05:09:00,56.1,55.3,29.41,West,276,0.0,0.0,97,0.19,,,1.75,520,WeatherCatV1.22B15,2013-11-27 10:09:00,
2013-11-27 05:11:00,56.1,55.3,29.41,West,277,0.0,1.0,97,0.47,,,1.76,520,WeatherCatV1.22B15,2013-11-27 10:11:00,
2013-11-27 05:13:00,56.1,55.3,29.41,West,277,0.0,1.0,97,0.43,,,1.77,520,WeatherCatV1.22B15,2013-11-27 10:13:00,
2013-11-27 05:14:00,56.1,55.3,29.41,West,277,1.0,1.0,97,0.36,,,1.78,520,WeatherCatV1.22B15,2013-11-27 10:14:00,
2013-11-27 05:15:00,56.1,55.3,29.41,West,277,0.0,1.0,97,0.24,,,1.78,520,WeatherCatV1.22B15,2013-11-27 10:15:00,
2013-11-27 05:17:00,56.1,55.3,29.42,West,276,1.0,1.0,97,0.22,,,1.79,520,WeatherCatV1.22B15,2013-11-27 10:17:00,
2013-11-27 05:18:00,56.1,55.3,29.42,West,277,0.0,1.0,97,0.26,,,1.79,520,WeatherCatV1.22B15,2013-11-27 10:18:00,
2013-11-27 05:19:00,56.1,55.3,29.42,West,277,0.0,1.0,97,0.26,,,1.80,520,WeatherCatV1.22B15,2013-11-27 10:19:00,
2013-11-27 05:21:00,56.1,55.3,29.42,West,277,0.0,0.0,97,0.37,,,1.81,520,WeatherCatV1.22B15,2013-11-27 10:21:00,
2013-11-27 05:22:00,56.2,55.4,29.41,West,277,0.0,1.0,97,0.40,,,1.82,520,WeatherCatV1.22B15,2013-11-27 10:22:00,
2013-11-27 05:23:00,56.2,55.4,29.41,West,277,1.0,1.0,97,0.32,,,1.82,520,WeatherCatV1.22B15,2013-11-27 10:23:00,
2013-11-27 05:24:00,56.2,55.4,29.41,West,277,1.0,1.0,97,0.32,,,1.83,520,WeatherCatV1.22B15,2013-11-27 10:24:00,
2013-11-27 05:26:00,56.1,55.3,29.41,West,276,1.0,1.0,97,0.30,,,1.84,520,WeatherCatV1.22B15,2013-11-27 10:26:00,
2013-11-27 05:28:00,56.1,55.3,29.41,West,277,0.0,0.0,97,0.22,,,1.84,520,WeatherCatV1.22B15,2013-11-27 10:28:00,
2013-11-27 05:29:00,56.1,55.3,29.41,West,276,0.0,1.0,97,0.19,,,1.85,520,WeatherCatV1.22B15,2013-11-27 10:29:00,
2013-11-27 05:31:00,56.1,55.3,29.40,West,277,1.0,1.0,97,0.19,,,1.85,520,WeatherCatV1.22B15,2013-11-27 10:31:00,
2013-11-27 05:33:00,56.1,55.3,29.40,West,277,1.0,1.0,97,0.19,,,1.86,520,WeatherCatV1.22B15,2013-11-27 10:33:00,
2013-11-27 05:34:00,56.1,55.3,29.40,West,277,1.0,1.0,97,0.18,,,1.86,520,WeatherCatV1.22B15,2013-11-27 10:34:00,
2013-11-27 05:35:00,56.0,55.2,29.40,West,276,1.0,1.0,97,0.18,,,1.87,520,WeatherCatV1.22B15,2013-11-27 10:35:00,
2013-11-27 05:37:00,56.1,55.3,29.40,West,276,0.0,1.0,97,0.18,,,1.87,520,WeatherCatV1.22B15,2013-11-27 10:37:00,
2013-11-27 05:38:00,56.1,55.3,29.40,West,277,0.0,1.0,97,0.18,,,1.87,520,WeatherCatV1.22B15,2013-11-27 10:38:00,
2013-11-27 05:40:00,56.1,55.3,29.40,West,277,0.0,1.0,97,0.17,,,1.88,520,WeatherCatV1.22B15,2013-11-27 10:40:00,
2013-11-27 05:42:00,56.2,55.4,29.40,West,277,0.0,0.0,97,0.48,,,1.89,520,WeatherCatV1.22B15,2013-11-27 10:42:00,
2013-11-27 05:43:00,56.2,55.4,29.40,West,276,0.0,1.0,97,0.69,,,1.91,520,WeatherCatV1.22B15,2013-11-27 10:43:00,
2013-11-27 05:44:00,56.3,55.5,29.40,West,276,0.0,1.0,97,0.67,,,1.92,520,WeatherCatV1.22B15,2013-11-27 10:44:00,
2013-11-27 05:45:00,56.3,55.5,29.40,West,277,0.0,0.0,97,0.36,,,1.92,520,WeatherCatV1.22B15,2013-11-27 10:45:00,
2013-11-27 05:47:00,56.3,55.5,29.40,West,277,0.0,1.0,97,0.27,,,1.93,520,WeatherCatV1.22B15,2013-11-27 10:47:00,
2013-11-27 05:48:00,56.3,55.5,29.39,West,277,0.0,0.0,97,0.30,,,1.94,520,WeatherCatV1.22B15,2013-11-27 10:48:00,
2013-11-27 05:49:00,56.3,55.5,29.39,West,277,0.0,0.0,97,0.30,,,1.94,520,WeatherCatV1.22B15,2013-11-27 10:49:00,
2013-11-27 05:50:00,56.3,55.5,29.39,West,277,0.0,0.0,97,0.35,,,1.95,520,WeatherCatV1.22B15,2013-11-27 10:50:00,
2013-11-27 05:51:00,56.3,55.5,29.39,West,277,0.0,0.0,97,0.35,,,1.95,520,WeatherCatV1.22B15,2013-11-27 10:51:00,
2013-11-27 05:53:00,56.3,55.5,29.39,West,277,0.0,1.0,97,0.28,,,1.96,520,WeatherCatV1.22B15,2013-11-27 10:53:00,
2013-11-27 05:54:00,56.3,55.5,29.39,West,277,0.0,0.0,97,0.23,,,1.96,520,WeatherCatV1.22B15,2013-11-27 10:54:00,
2013-11-27 05:55:00,56.3,55.5,29.39,West,277,0.0,0.0,97,0.17,,,1.96,520,WeatherCatV1.22B15,2013-11-27 10:55:00,
2013-11-27 05:56:00,56.3,55.5,29.39,West,277,0.0,0.0,97,0.16,,,1.97,520,WeatherCatV1.22B15,2013-11-27 10:56:00,
2013-11-27 05:58:00,56.4,55.6,29.39,West,277,0.0,0.0,97,0.16,,,1.97,520,WeatherCatV1.22B15,2013-11-27 10:58:00,
2013-11-27 06:00:00,56.4,55.6,29.39,West,277,0.0,0.0,97,0.13,,,1.97,520,WeatherCatV1.22B15,2013-11-27 11:00:00,
2013-11-27 06:01:00,56.4,55.6,29.39,West,277,0.0,0.0,97,0.11,,,1.97,520,WeatherCatV1.22B15,2013-11-27 11:01:00,
2013-11-27 06:03:00,56.4,55.6,29.39,West,277,0.0,0.0,97,0.10,,,1.98,520,WeatherCatV1.22B15,2013-11-27 11:03:00,
2013-11-27 06:04:00,56.4,55.6,29.39,West,277,0.0,0.0,97,0.10,,,1.98,520,WeatherCatV1.22B15,2013-11-27 11:04:00,
2013-11-27 06:05:00,56.4,55.6,29.38,West,277,0.0,0.0,97,0.10,,,1.98,520,WeatherCatV1.22B15,2013-11-27 11:05:00,
2013-11-27 06:06:00,56.4,55.6,29.39,West,277,0.0,0.0,97,0.10,,,1.98,520,WeatherCatV1.22B15,2013-11-27 11:06:00,
2013-11-27 06:07:00,56.4,55.6,29.39,West,277,0.0,0.0,97,0.10,,,1.99,520,WeatherCatV1.22B15,2013-11-27 11:07:00,
2013-11-27 06:09:00,56.4,55.6,29.39,West,276,0.0,0.0,97,0.10,,,1.99,520,WeatherCatV1.22B15,2013-11-27 11:09:00,
2013-11-27 06:10:00,56.5,55.7,29.39,West,276,0.0,0.0,97,0.10,,,1.99,520,WeatherCatV1.22B15,2013-11-27 11:10:00,
2013-11-27 06:11:00,56.4,55.6,29.39,West,277,0.0,0.0,97,0.10,,,1.99,520,WeatherCatV1.22B15,2013-11-27 11:11:00,
2013-11-27 06:12:00,56.5,55.7,29.38,West,276,0.0,0.0,97,0.10,,,1.99,520,WeatherCatV1.22B15,2013-11-27 11:12:00,
2013-11-27 06:14:00,56.5,55.7,29.39,West,277,0.0,0.0,97,0.09,,,1.99,520,WeatherCatV1.22B15,2013-11-27 11:14:00,
2013-11-27 06:15:00,56.5,55.7,29.39,West,277,0.0,0.0,97,0.09,,,2.00,520,WeatherCatV1.22B15,2013-11-27 11:15:00,
2013-11-27 06:16:00,56.5,55.7,29.39,West,277,0.0,0.0,97,0.09,,,2.00,520,WeatherCatV1.22B15,2013-11-27 11:16:00,
2013-11-27 06:17:00,56.5,55.7,29.39,West,277,0.0,0.0,97,0.23,,,2.01,520,WeatherCatV1.22B15,2013-11-27 11:17:00,
2013-11-27 06:19:00,56.5,55.7,29.39,West,276,0.0,0.0,97,0.23,,,2.01,520,WeatherCatV1.22B15,2013-11-27 11:19:00,
2013-11-27 06:20:00,56.6,55.8,29.38,West,276,0.0,0.0,97,0.17,,,2.02,520,WeatherCatV1.22B15,2013-11-27 11:20:00,
2013-11-27 06:21:00,56.6,55.8,29.39,West,276,0.0,0.0,97,0.17,,,2.02,520,WeatherCatV1.22B15,2013-11-27 11:21:00,
2013-11-27 06:22:00,56.6,55.8,29.39,West,276,0.0,0.0,97,0.30,,,2.03,520,WeatherCatV1.22B15,2013-11-27 11:22:00,
2013-11-27 06:24:00,56.6,55.8,29.38,West,277,0.0,0.0,97,0.26,,,2.03,520,WeatherCatV1.22B15,2013-11-27 11:24:00,
2013-11-27 06:25:00,56.6,55.8,29.39,West,277,0.0,0.0,97,0.20,,,2.03,520,WeatherCatV1.22B15,2013-11-27 11:25:00,
2013-11-27 06:26:00,56.7,55.9,29.38,West,277,0.0,0.0,97,0.16,,,2.03,520,WeatherCatV1.22B15,2013-11-27 11:26:00,
2013-11-27 06:27:00,56.7,55.9,29.38,West,277,0.0,0.0,97,0.15,,,2.04,520,WeatherCatV1.22B15,2013-11-27 11:27:00,
2013-11-27 06:28:00,56.8,56.0,29.39,West,276,0.0,0.0,97,0.15,,,2.04,520,WeatherCatV1.22B15,2013-11-27 11:28:00,
2013-11-27 06:30:00,56.9,56.1,29.39,West,277,0.0,0.0,97,0.15,,,2.04,520,WeatherCatV1.22B15,2013-11-27 11:30:00,
2013-11-27 06:31:00,57.0,56.2,29.39,West,277,0.0,0.0,97,0.12,,,2.04,520,WeatherCatV1.22B15,2013-11-27 11:31:00,
2013-11-27 06:32:00,57.0,56.2,29.39,West,277,0.0,0.0,97,0.10,,,2.04,520,WeatherCatV1.22B15,2013-11-27 11:32:00,
2013-11-27 06:34:00,57.0,56.2,29.39,West,276,0.0,0.0,97,0.08,,,2.04,520,WeatherCatV1.22B15,2013-11-27 11:34:00,
2013-11-27 06:35:00,57.0,56.2,29.39,West,276,0.0,0.0,97,0.07,,,2.04,520,WeatherCatV1.22B15,2013-11-27 11:35:00,
2013-11-27 06:36:00,57.0,56.2,29.39,West,277,0.0,0.0,97,0.07,,,2.05,520,WeatherCatV1.22B15,2013-11-27 11:36:00,
2013-11-27 06:37:00,57.1,56.2,29.39,West,276,0.0,0.0,97,0.07,,,2.05,520,WeatherCatV1.22B15,2013-11-27 11:37:00,
2013-11-27 06:40:00,57.3,56.5,29.39,West,277,0.0,1.0,97,0.07,,,2.05,520,WeatherCatV1.22B15,2013-11-27 11:40:00,
2013-11-27 06:41:00,57.3,56.5,29.39,West,277,0.0,1.0,97,0.07,,,2.05,520,WeatherCatV1.22B15,2013-11-27 11:41:00,
2013-11-27 06:42:00,57.4,56.5,29.39,West,277,0.0,0.0,97,0.07,,,2.05,520,WeatherCatV1.22B15,2013-11-27 11:42:00,
2013-11-27 06:43:00,57.4,56.5,29.39,West,277,0.0,0.0,97,0.07,,,2.05,520,WeatherCatV1.22B15,2013-11-27 11:43:00,
2013-11-27 06:45:00,57.5,56.7,29.39,West,277,0.0,0.0,97,0.06,,,2.05,520,WeatherCatV1.22B15,2013-11-27 11:45:00,
2013-11-27 06:46:00,57.5,56.7,29.39,West,277,0.0,0.0,97,0.06,,,2.05,520,WeatherCatV1.22B15,2013-11-27 11:46:00,
2013-11-27 06:47:00,57.5,56.7,29.39,West,277,0.0,0.0,97,0.05,,,2.06,520,WeatherCatV1.22B15,2013-11-27 11:47:00,
2013-11-27 06:48:00,57.5,56.7,29.39,West,276,0.0,0.0,97,0.05,,,2.06,520,WeatherCatV1.22B15,2013-11-27 11:48:00,
2013-11-27 06:50:00,57.5,56.7,29.39,West,277,0.0,0.0,97,0.05,,,2.06,520,WeatherCatV1.22B15,2013-11-27 11:50:00,
2013-11-27 06:51:00,57.5,56.7,29.39,West,277,0.0,0.0,97,0.05,,,2.06,520,WeatherCatV1.22B15,2013-11-27 11:51:00,
2013-11-27 06:52:00,57.5,56.7,29.39,West,277,0.0,0.0,97,0.05,,,2.06,520,WeatherCatV1.22B15,2013-11-27 11:52:00,
2013-11-27 06:54:00,57.5,56.7,29.39,West,277,0.0,0.0,97,0.05,,,2.06,520,WeatherCatV1.22B15,2013-11-27 11:54:00,
2013-11-27 06:55:00,57.5,56.7,29.39,West,277,0.0,0.0,97,0.05,,,2.06,520,WeatherCatV1.22B15,2013-11-27 11:55:00,
2013-11-27 06:56:00,57.5,56.7,29.38,West,277,0.0,0.0,97,0.05,,,2.06,520,WeatherCatV1.22B15,2013-11-27 11:56:00,
2013-11-27 06:58:00,57.5,56.7,29.38,West,277,0.0,0.0,97,0.05,,,2.06,520,WeatherCatV1.22B15,2013-11-27 11:58:00,
2013-11-27 06:59:00,57.5,56.7,29.39,West,276,0.0,0.0,97,0.05,,,2.06,520,WeatherCatV1.22B15,2013-11-27 11:59:00,
2013-11-27 07:01:00,57.5,56.7,29.38,West,276,0.0,0.0,97,0.04,,,2.07,520,WeatherCatV1.22B15,2013-11-27 12:01:00,
2013-11-27 07:02:00,57.4,56.5,29.39,West,277,0.0,0.0,97,0.04,,,2.07,520,WeatherCatV1.22B15,2013-11-27 12:02:00,
2013-11-27 07:03:00,57.4,56.5,29.39,West,276,0.0,0.0,97,0.04,,,2.07,520,WeatherCatV1.22B15,2013-11-27 12:03:00,
2013-11-27 07:04:00,57.3,56.5,29.39,West,277,0.0,0.0,97,0.04,,,2.07,520,WeatherCatV1.22B15,2013-11-27 12:04:00,
2013-11-27 07:06:00,57.2,56.3,29.39,West,276,0.0,0.0,97,0.04,,,2.07,520,WeatherCatV1.22B15,2013-11-27 12:06:00,
2013-11-27 07:07:00,57.2,56.3,29.39,West,277,0.0,0.0,97,0.04,,,2.07,520,WeatherCatV1.22B15,2013-11-27 12:07:00,
2013-11-27 07:08:00,57.1,56.2,29.39,West,277,0.0,0.0,97,0.04,,,2.07,520,WeatherCatV1.22B15,2013-11-27 12:08:00,
2013-11-27 07:10:00,57.0,56.2,29.39,West,276,0.0,1.0,97,0.04,,,2.07,520,WeatherCatV1.22B15,2013-11-27 12:10:00,
2013-11-27 07:11:00,57.0,56.2,29.39,West,277,0.0,0.0,97,0.04,,,2.07,520,WeatherCatV1.22B15,2013-11-27 12:11:00,
2013-11-27 07:12:00,57.0,56.2,29.39,West,277,0.0,0.0,97,0.04,,,2.07,520,WeatherCatV1.22B15,2013-11-27 12:12:00,
2013-11-27 07:13:00,56.9,56.1,29.39,West,277,0.0,0.0,97,0.04,,,2.07,520,WeatherCatV1.22B15,2013-11-27 12:13:00,
2013-11-27 07:15:00,56.8,56.0,29.39,West,277,0.0,0.0,97,0.04,,,2.08,520,WeatherCatV1.22B15,2013-11-27 12:15:00,
2013-11-27 07:16:00,56.8,56.0,29.39,West,277,0.0,0.0,97,0.04,,,2.08,520,WeatherCatV1.22B15,2013-11-27 12:16:00,
2013-11-27 07:17:00,56.8,56.0,29.39,West,277,0.0,1.0,97,0.04,,,2.08,520,WeatherCatV1.22B15,2013-11-27 12:17:00,
2013-11-27 07:18:00,56.8,56.0,29.39,West,277,0.0,1.0,97,0.04,,,2.08,520,WeatherCatV1.22B15,2013-11-27 12:18:00,
2013-11-27 07:20:00,56.8,56.0,29.38,West,277,0.0,1.0,97,0.04,,,2.08,520,WeatherCatV1.22B15,2013-11-27 12:20:00,
2013-11-27 07:21:00,56.8,56.0,29.38,West,277,0.0,1.0,97,0.04,,,2.08,520,WeatherCatV1.22B15,2013-11-27 12:21:00,
2013-11-27 07:22:00,56.8,56.0,29.38,West,277,0.0,1.0,97,0.04,,,2.08,520,WeatherCatV1.22B15,2013-11-27 12:22:00,
2013-11-27 07:23:00,56.8,56.0,29.38,West,277,0.0,0.0,97,0.04,,,2.08,520,WeatherCatV1.22B15,2013-11-27 12:23:00,
2013-11-27 07:24:00,56.8,56.0,29.38,West,277,0.0,0.0,97,0.04,,,2.08,520,WeatherCatV1.22B15,2013-11-27 12:24:00,
2013-11-27 07:26:00,56.9,56.1,29.38,West,277,0.0,0.0,97,0.06,,,2.09,520,WeatherCatV1.22B15,2013-11-27 12:26:00,
2013-11-27 07:27:00,56.9,56.1,29.38,West,276,0.0,1.0,97,0.06,,,2.09,520,WeatherCatV1.22B15,2013-11-27 12:27:00,
2013-11-27 07:28:00,56.9,56.1,29.38,West,277,0.0,1.0,97,0.06,,,2.09,520,WeatherCatV1.22B15,2013-11-27 12:28:00,
2013-11-27 07:30:00,57.0,56.2,29.38,West,276,0.0,1.0,97,0.06,,,2.09,520,WeatherCatV1.22B15,2013-11-27 12:30:00,
2013-11-27 07:32:00,57.0,56.2,29.38,West,277,0.0,1.0,97,0.06,,,2.09,520,WeatherCatV1.22B15,2013-11-27 12:32:00,
2013-11-27 07:33:00,57.1,56.2,29.38,West,277,0.0,1.0,97,0.06,,,2.09,520,WeatherCatV1.22B15,2013-11-27 12:33:00,
2013-11-27 07:35:00,57.1,56.2,29.38,West,277,0.0,0.0,97,0.06,,,2.09,520,WeatherCatV1.22B15,2013-11-27 12:35:00,
2013-11-27 07:37:00,57.0,56.2,29.39,West,277,0.0,1.0,97,0.05,,,2.09,520,WeatherCatV1.22B15,2013-11-27 12:37:00,
2013-11-27 07:38:00,57.0,56.2,29.39,West,277,0.0,1.0,97,0.04,,,2.09,520,WeatherCatV1.22B15,2013-11-27 12:38:00,
2013-11-27 07:40:00,57.0,56.2,29.39,West,277,0.0,1.0,97,0.04,,,2.09,520,WeatherCatV1.22B15,2013-11-27 12:40:00,
2013-11-27 07:42:00,57.0,56.2,29.39,West,277,1.0,1.0,97,0.00,,,2.09,520,WeatherCatV1.22B15,2013-11-27 12:42:00,
2013-11-27 07:43:00,56.9,56.1,29.40,West,277,0.0,1.0,97,0.00,,,2.09,520,WeatherCatV1.22B15,2013-11-27 12:43:00,
2013-11-27 07:45:00,56.8,56.0,29.40,West,277,1.0,2.0,97,0.00,,,2.09,520,WeatherCatV1.22B15,2013-11-27 12:45:00,
2013-11-27 07:47:00,56.6,55.8,29.39,West,276,1.0,4.0,97,0.00,,,2.09,520,WeatherCatV1.22B15,2013-11-27 12:47:00,
2013-11-27 07:48:00,56.5,55.7,29.39,West,277,1.0,4.0,97,0.00,,,2.09,520,WeatherCatV1.22B15,2013-11-27 12:48:00,
2013-11-27 07:50:00,55.9,55.1,29.40,West,276,4.0,4.0,97,0.00,,,2.09,520,WeatherCatV1.22B15,2013-11-27 12:50:00,
2013-11-27 07:53:00,54.9,54.1,29.41,West,277,2.0,5.0,97,0.00,,,2.09,520,WeatherCatV1.22B15,2013-11-27 12:53:00,
2013-11-27 07:55:00,53.7,52.6,29.40,West,276,2.0,3.0,96,0.00,,,2.09,520,WeatherCatV1.22B15,2013-11-27 12:55:00,
2013-11-27 07:58:00,52.9,51.5,29.40,West,277,1.0,2.0,95,0.00,,,2.10,520,WeatherCatV1.22B15,2013-11-27 12:58:00,
2013-11-27 07:59:00,52.6,51.2,29.40,West,276,1.0,4.0,95,0.00,,,2.10,520,WeatherCatV1.22B15,2013-11-27 12:59:00,
2013-11-27 08:00:00,52.3,50.9,29.40,West,277,3.0,3.0,95,0.00,,,2.10,520,WeatherCatV1.22B15,2013-11-27 13:00:00,
2013-11-27 08:03:00,51.8,50.4,29.40,West,276,1.0,4.0,95,0.00,,,2.10,520,WeatherCatV1.22B15,2013-11-27 13:03:00,
2013-11-27 08:04:00,51.7,50.3,29.40,West,276,3.0,4.0,95,0.00,,,2.10,520,WeatherCatV1.22B15,2013-11-27 13:04:00,
2013-11-27 08:06:00,51.2,49.8,29.40,West,277,1.0,3.0,95,0.00,,,2.10,520,WeatherCatV1.22B15,2013-11-27 13:06:00,
2013-11-27 08:08:00,51.0,49.6,29.40,West,276,0.0,0.0,95,0.00,,,2.10,520,WeatherCatV1.22B15,2013-11-27 13:08:00,
2013-11-27 08:09:00,51.0,49.6,29.40,West,277,1.0,1.0,95,0.00,,,2.10,520,WeatherCatV1.22B15,2013-11-27 13:09:00,
2013-11-27 08:11:00,50.7,49.3,29.40,West,277,2.0,3.0,95,0.00,,,2.10,520,WeatherCatV1.22B15,2013-11-27 13:11:00,
2013-11-27 08:13:00,50.4,49.0,29.40,West,276,0.0,3.0,95,0.00,,,2.10,520,WeatherCatV1.22B15,2013-11-27 13:13:00,
2013-11-27 08:14:00,50.2,48.8,29.40,West,277,2.0,2.0,95,0.00,,,2.10,520,WeatherCatV1.22B15,2013-11-27 13:14:00,
2013-11-27 08:15:00,50.2,48.8,29.40,West,277,0.0,2.0,95,0.00,,,2.10,520,WeatherCatV1.22B15,2013-11-27 13:15:00,
2013-11-27 08:16:00,50.0,48.6,29.40,West,277,1.0,2.0,95,0.00,,,2.10,520,WeatherCatV1.22B15,2013-11-27 13:16:00,
2013-11-27 08:18:00,49.8,48.4,29.40,West,277,1.0,4.0,95,0.00,,,2.10,520,WeatherCatV1.22B15,2013-11-27 13:18:00,
2013-11-27 08:19:00,49.7,48.3,29.40,West,277,0.0,1.0,95,0.00,,,2.10,520,WeatherCatV1.22B15,2013-11-27 13:19:00,
2013-11-27 08:20:00,49.7,48.3,29.40,West,277,1.0,1.0,95,0.00,,,2.10,520,WeatherCatV1.22B15,2013-11-27 13:20:00,
2013-11-27 08:21:00,49.6,48.5,29.40,West,276,0.0,1.0,96,0.00,,,2.10,520,WeatherCatV1.22B15,2013-11-27 13:21:00,
2013-11-27 08:23:00,49.5,48.4,29.40,West,276,0.0,1.0,96,0.00,,,2.10,520,WeatherCatV1.22B15,2013-11-27 13:23:00,
2013-11-27 08:24:00,49.5,48.4,29.40,West,277,0.0,1.0,96,0.00,,,2.10,520,WeatherCatV1.22B15,2013-11-27 13:24:00,
2013-11-27 08:25:00,49.4,48.3,29.40,West,277,0.0,1.0,96,0.00,,,2.10,520,WeatherCatV1.22B15,2013-11-27 13:25:00,
2013-11-27 08:26:00,49.4,48.3,29.40,West,277,0.0,3.0,96,0.00,,,2.10,520,WeatherCatV1.22B15,2013-11-27 13:26:00,
2013-11-27 08:28:00,49.1,48.0,29.40,West,277,1.0,2.0,96,0.00,,,2.10,520,WeatherCatV1.22B15,2013-11-27 13:28:00,
2013-11-27 08:29:00,49.1,48.0,29.40,West,277,1.0,2.0,96,0.00,,,2.10,520,WeatherCatV1.22B15,2013-11-27 13:29:00,
2013-11-27 08:30:00,49.0,47.9,29.40,West,277,1.0,2.0,96,0.00,,,2.10,520,WeatherCatV1.22B15,2013-11-27 13:30:00,
2013-11-27 08:31:00,48.9,47.8,29.41,West,277,1.0,2.0,96,0.00,,,2.10,520,WeatherCatV1.22B15,2013-11-27 13:31:00,
2013-11-27 08:33:00,48.6,47.5,29.41,West,276,0.0,3.0,96,0.00,,,2.10,520,WeatherCatV1.22B15,2013-11-27 13:33:00,
2013-11-27 08:34:00,48.6,47.5,29.41,West,276,0.0,3.0,96,0.00,,,2.10,520,WeatherCatV1.22B15,2013-11-27 13:34:00,
2013-11-27 08:35:00,48.5,47.4,29.41,West,276,1.0,1.0,96,0.00,,,2.10,520,WeatherCatV1.22B15,2013-11-27 13:35:00,
2013-11-27 08:36:00,48.4,47.3,29.41,West,277,1.0,2.0,96,0.00,,,2.10,520,WeatherCatV1.22B15,2013-11-27 13:36:00,
2013-11-27 08:37:00,48.3,47.2,29.41,West,276,1.0,2.0,96,0.00,,,2.10,520,WeatherCatV1.22B15,2013-11-27 13:37:00,
2013-11-27 08:39:00,48.2,47.1,29.41,West,276,1.0,2.0,96,0.00,,,2.10,520,WeatherCatV1.22B15,2013-11-27 13:39:00,
2013-11-27 08:40:00,48.0,46.9,29.41,West,277,0.0,3.0,96,0.00,,,2.10,520,WeatherCatV1.22B15,2013-11-27 13:40:00,
2013-11-27 08:41:00,47.9,46.8,29.41,West,277,0.0,1.0,96,0.00,,,2.10,520,WeatherCatV1.22B15,2013-11-27 13:41:00,
2013-11-27 08:42:00,47.9,46.8,29.42,West,277,1.0,1.0,96,0.00,,,2.10,520,WeatherCatV1.22B15,2013-11-27 13:42:00,
2013-11-27 08:44:00,47.7,46.6,29.42,West,277,1.0,2.0,96,0.00,,,2.10,520,WeatherCatV1.22B15,2013-11-27 13:44:00,
2013-11-27 08:46:00,47.6,46.5,29.42,West,277,2.0,3.0,96,0.00,,,2.10,520,WeatherCatV1.22B15,2013-11-27 13:46:00,
2013-11-27 08:47:00,47.4,46.3,29.42,West,277,2.0,3.0,96,0.00,,,2.10,520,WeatherCatV1.22B15,2013-11-27 13:47:00,
2013-11-27 08:49:00,47.3,46.2,29.43,West,277,1.0,3.0,96,0.00,,,2.11,520,WeatherCatV1.22B15,2013-11-27 13:49:00,
2013-11-27 08:50:00,47.3,46.2,29.43,West,276,1.0,3.0,96,0.00,,,2.11,520,WeatherCatV1.22B15,2013-11-27 13:50:00,
2013-11-27 08:51:00,47.2,46.1,29.43,West,277,0.0,1.0,96,0.00,,,2.11,520,WeatherCatV1.22B15,2013-11-27 13:51:00,
2013-11-27 08:53:00,47.2,46.1,29.43,West,276,1.0,3.0,96,0.00,,,2.11,520,WeatherCatV1.22B15,2013-11-27 13:53:00,
2013-11-27 08:54:00,47.1,46.0,29.44,West,277,2.0,3.0,96,0.00,,,2.11,520,WeatherCatV1.22B15,2013-11-27 13:54:00,
2013-11-27 08:55:00,47.1,46.0,29.44,West,277,1.0,2.0,96,0.10,,,2.12,520,WeatherCatV1.22B15,2013-11-27 13:55:00,
2013-11-27 08:56:00,47.0,45.9,29.44,West,276,3.0,3.0,96,0.10,,,2.12,520,WeatherCatV1.22B15,2013-11-27 13:56:00,
2013-11-27 08:57:00,46.9,45.8,29.44,West,276,1.0,3.0,96,0.10,,,2.12,520,WeatherCatV1.22B15,2013-11-27 13:57:00,
2013-11-27 08:58:00,46.9,45.8,29.44,West,277,1.0,1.0,96,0.10,,,2.12,520,WeatherCatV1.22B15,2013-11-27 13:58:00,
2013-11-27 09:00:00,46.8,45.7,29.44,West,276,1.0,3.0,96,0.16,,,2.13,520,WeatherCatV1.22B15,2013-11-27 14:00:00,
2013-11-27 09:01:00,46.8,45.7,29.44,West,276,0.0,3.0,96,0.23,,,2.14,520,WeatherCatV1.22B15,2013-11-27 14:01:00,
2013-11-27 09:02:00,46.7,45.6,29.43,West,277,0.0,1.0,96,0.23,,,2.14,520,WeatherCatV1.22B15,2013-11-27 14:02:00,
2013-11-27 09:03:00,46.7,45.6,29.43,West,277,0.0,1.0,96,0.23,,,2.14,520,WeatherCatV1.22B15,2013-11-27 14:03:00,
2013-11-27 09:05:00,46.7,45.6,29.43,West,277,1.0,1.0,96,0.14,,,2.14,520,WeatherCatV1.22B15,2013-11-27 14:05:00,
2013-11-27 09:07:00,46.6,45.5,29.43,West,277,1.0,2.0,96,0.14,,,2.15,520,WeatherCatV1.22B15,2013-11-27 14:07:00,
2013-11-27 09:09:00,46.6,45.5,29.43,West,276,2.0,2.0,96,0.14,,,2.15,520,WeatherCatV1.22B15,2013-11-27 14:09:00,
2013-11-27 09:10:00,46.5,45.4,29.43,West,276,2.0,6.0,96,0.12,,,2.15,520,WeatherCatV1.22B15,2013-11-27 14:10:00,
2013-11-27 09:12:00,46.3,45.2,29.42,West,277,0.0,6.0,96,0.09,,,2.15,520,WeatherCatV1.22B15,2013-11-27 14:12:00,
2013-11-27 09:13:00,46.3,45.2,29.42,West,276,1.0,2.0,96,0.08,,,2.15,520,WeatherCatV1.22B15,2013-11-27 14:13:00,
2013-11-27 09:14:00,46.2,45.1,29.40,West,277,1.0,1.0,96,0.08,,,2.16,520,WeatherCatV1.22B15,2013-11-27 14:14:00,
2013-11-27 09:15:00,46.1,45.0,29.39,West,276,2.0,2.0,96,0.08,,,2.16,520,WeatherCatV1.22B15,2013-11-27 14:15:00,
2013-11-27 09:17:00,46.0,44.9,29.39,West,276,2.0,2.0,96,0.08,,,2.16,520,WeatherCatV1.22B15,2013-11-27 14:17:00,
2013-11-27 09:18:00,46.0,44.9,29.39,West,276,2.0,2.0,96,0.08,,,2.16,520,WeatherCatV1.22B15,2013-11-27 14:18:00,
2013-11-27 09:20:00,45.8,44.7,29.40,West,277,1.0,4.0,96,0.08,,,2.16,520,WeatherCatV1.22B15,2013-11-27 14:20:00,
2013-11-27 09:22:00,45.7,44.6,29.41,West,277,1.0,1.0,96,0.06,,,2.16,520,WeatherCatV1.22B15,2013-11-27 14:22:00,
2013-11-27 09:23:00,45.6,44.5,29.41,West,276,1.0,1.0,96,0.06,,,2.16,520,WeatherCatV1.22B15,2013-11-27 14:23:00,
2013-11-27 09:24:00,45.6,44.5,29.41,West,277,0.0,2.0,96,0.05,,,2.16,520,WeatherCatV1.22B15,2013-11-27 14:24:00,
2013-11-27 09:25:00,45.6,44.5,29.41,West,277,2.0,3.0,96,0.05,,,2.16,520,WeatherCatV1.22B15,2013-11-27 14:25:00,
2013-11-27 09:27:00,45.6,44.5,29.42,West,277,1.0,3.0,96,0.04,,,2.16,520,WeatherCatV1.22B15,2013-11-27 14:27:00,
2013-11-27 09:28:00,45.5,44.4,29.42,West,277,1.0,2.0,96,0.04,,,2.16,520,WeatherCatV1.22B15,2013-11-27 14:28:00,
2013-11-27 09:30:00,45.5,44.4,29.42,West,277,1.0,3.0,96,0.04,,,2.17,520,WeatherCatV1.22B15,2013-11-27 14:30:00,
2013-11-27 09:31:00,45.5,44.4,29.42,West,277,3.0,5.0,96,0.04,,,2.17,520,WeatherCatV1.22B15,2013-11-27 14:31:00,
2013-11-27 09:32:00,45.4,44.3,29.42,West,277,1.0,3.0,96,0.04,,,2.17,520,WeatherCatV1.22B15,2013-11-27 14:32:00,
2013-11-27 09:33:00,45.3,44.2,29.41,West,277,1.0,3.0,96,0.04,,,2.17,520,WeatherCatV1.22B15,2013-11-27 14:33:00,
2013-11-27 09:35:00,45.2,44.1,29.40,West,277,3.0,3.0,96,0.04,,,2.17,520,WeatherCatV1.22B15,2013-11-27 14:35:00,
2013-11-27 09:36:00,45.2,44.1,29.40,West,277,1.0,5.0,96,0.04,,,2.17,520,WeatherCatV1.22B15,2013-11-27 14:36:00,
2013-11-27 09:37:00,45.1,43.8,29.40,West,277,1.0,5.0,95,0.04,,,2.17,520,WeatherCatV1.22B15,2013-11-27 14:37:00,
2013-11-27 09:38:00,45.0,43.7,29.39,West,277,1.0,2.0,95,0.04,,,2.17,520,WeatherCatV1.22B15,2013-11-27 14:38:00,
2013-11-27 09:40:00,45.0,43.9,29.39,West,277,1.0,5.0,96,0.06,,,2.18,520,WeatherCatV1.22B15,2013-11-27 14:40:00,
2013-11-27 09:41:00,44.9,43.8,29.39,West,277,3.0,5.0,96,0.06,,,2.18,520,WeatherCatV1.22B15,2013-11-27 14:41:00,
2013-11-27 09:42:00,44.8,43.5,29.39,West,276,2.0,6.0,95,0.06,,,2.18,520,WeatherCatV1.22B15,2013-11-27 14:42:00,
2013-11-27 09:43:00,44.7,43.4,29.40,West,277,2.0,6.0,95,0.06,,,2.18,520,WeatherCatV1.22B15,2013-11-27 14:43:00,
2013-11-27 09:44:00,44.7,43.4,29.40,West,277,1.0,3.0,95,0.06,,,2.18,520,WeatherCatV1.22B15,2013-11-27 14:44:00,
2013-11-27 09:45:00,44.6,43.3,29.40,West,276,1.0,2.0,95,0.06,,,2.18,520,WeatherCatV1.22B15,2013-11-27 14:45:00,
2013-11-27 09:46:00,44.6,43.3,29.40,West,277,3.0,4.0,95,0.06,,,2.18,520,WeatherCatV1.22B15,2013-11-27 14:46:00,
2013-11-27 09:48:00,44.5,43.2,29.39,West,276,0.0,3.0,95,0.06,,,2.19,520,WeatherCatV1.22B15,2013-11-27 14:48:00,
2013-11-27 09:49:00,44.5,43.2,29.38,West,277,1.0,3.0,95,0.06,,,2.19,520,WeatherCatV1.22B15,2013-11-27 14:49:00,
2013-11-27 09:50:00,44.4,43.1,29.38,West,277,2.0,5.0,95,0.06,,,2.19,520,WeatherCatV1.22B15,2013-11-27 14:50:00,
2013-11-27 09:51:00,44.3,43.0,29.38,West,277,4.0,6.0,95,0.06,,,2.19,520,WeatherCatV1.22B15,2013-11-27 14:51:00,
2013-11-27 09:53:00,44.2,42.9,29.41,West,277,2.0,3.0,95,0.06,,,2.19,520,WeatherCatV1.22B15,2013-11-27 14:53:00,
2013-11-27 09:54:00,44.1,42.8,29.41,West,277,3.0,4.0,95,0.06,,,2.19,520,WeatherCatV1.22B15,2013-11-27 14:54:00,
2013-11-27 09:55:00,44.1,42.8,29.43,West,277,4.0,7.0,95,0.08,,,2.20,520,WeatherCatV1.22B15,2013-11-27 14:55:00,
2013-11-27 09:56:00,44.1,42.8,29.42,West,276,0.0,7.0,95,0.08,,,2.20,520,WeatherCatV1.22B15,2013-11-27 14:56:00,
2013-11-27 09:57:00,44.0,42.7,29.42,West,277,0.0,7.0,95,0.08,,,2.20,520,WeatherCatV1.22B15,2013-11-27 14:57:00,
2013-11-27 09:58:00,44.0,42.7,29.42,West,277,2.0,2.0,95,0.08,,,2.20,520,WeatherCatV1.22B15,2013-11-27 14:58:00,
2013-11-27 09:59:00,44.0,42.7,29.42,West,276,1.0,2.0,95,0.08,,,2.20,520,WeatherCatV1.22B15,2013-11-27 14:59:00,
2013-11-27 10:00:00,44.0,42.7,29.42,West,277,0.0,2.0,95,0.08,,,2.20,520,WeatherCatV1.22B15,2013-11-27 15:00:00,
2013-11-27 10:01:00,43.9,42.6,29.41,West,276,1.0,2.0,95,0.08,,,2.20,520,WeatherCatV1.22B15,2013-11-27 15:01:00,
2013-11-27 10:02:00,43.9,42.6,29.41,West,277,2.0,3.0,95,0.08,,,2.20,520,WeatherCatV1.22B15,2013-11-27 15:02:00,
2013-11-27 10:04:00,43.8,42.5,29.41,West,277,3.0,4.0,95,0.09,,,2.21,520,WeatherCatV1.22B15,2013-11-27 15:04:00,
2013-11-27 10:05:00,43.7,42.4,29.40,West,277,1.0,4.0,95,0.09,,,2.21,520,WeatherCatV1.22B15,2013-11-27 15:05:00,
2013-11-27 10:06:00,43.6,42.3,29.40,West,277,1.0,4.0,95,0.09,,,2.21,520,WeatherCatV1.22B15,2013-11-27 15:06:00,
2013-11-27 10:07:00,43.5,42.2,29.40,West,277,0.0,4.0,95,0.09,,,2.21,520,WeatherCatV1.22B15,2013-11-27 15:07:00,
2013-11-27 10:09:00,43.4,42.1,29.40,West,277,2.0,3.0,95,0.09,,,2.21,520,WeatherCatV1.22B15,2013-11-27 15:09:00,
2013-11-27 10:10:00,43.4,42.1,29.40,West,277,2.0,3.0,95,0.08,,,2.21,520,WeatherCatV1.22B15,2013-11-27 15:10:00,
2013-11-27 10:11:00,43.4,42.1,29.41,West,277,1.0,3.0,95,0.06,,,2.21,520,WeatherCatV1.22B15,2013-11-27 15:11:00,
2013-11-27 10:12:00,43.3,42.0,29.41,West,277,1.0,2.0,95,0.06,,,2.21,520,WeatherCatV1.22B15,2013-11-27 15:12:00,
2013-11-27 10:13:00,43.3,42.0,29.41,West,277,2.0,4.0,95,0.06,,,2.21,520,WeatherCatV1.22B15,2013-11-27 15:13:00,
2013-11-27 10:14:00,43.3,42.0,29.41,West,277,1.0,4.0,95,0.05,,,2.21,520,WeatherCatV1.22B15,2013-11-27 15:14:00,
2013-11-27 10:15:00,43.2,41.9,29.42,West,277,2.0,2.0,95,0.05,,,2.21,520,WeatherCatV1.22B15,2013-11-27 15:15:00,
2013-11-27 10:17:00,43.2,41.9,29.42,West,277,1.0,4.0,95,0.04,,,2.21,520,WeatherCatV1.22B15,2013-11-27 15:17:00,
2013-11-27 10:18:00,43.1,41.8,29.42,West,277,2.0,2.0,95,0.04,,,2.21,520,WeatherCatV1.22B15,2013-11-27 15:18:00,
2013-11-27 10:19:00,43.1,41.8,29.42,West,277,1.0,4.0,95,0.04,,,2.22,520,WeatherCatV1.22B15,2013-11-27 15:19:00,
2013-11-27 10:20:00,43.0,41.7,29.41,West,277,1.0,4.0,95,0.04,,,2.22,520,WeatherCatV1.22B15,2013-11-27 15:20:00,
2013-11-27 10:22:00,42.9,41.6,29.41,West,277,1.0,4.0,95,0.04,,,2.22,520,WeatherCatV1.22B15,2013-11-27 15:22:00,
2013-11-27 10:23:00,42.9,41.6,29.41,West,277,0.0,4.0,95,0.04,,,2.22,520,WeatherCatV1.22B15,2013-11-27 15:23:00,
2013-11-27 10:24:00,42.8,41.5,29.40,West,277,1.0,1.0,95,0.04,,,2.22,520,WeatherCatV1.22B15,2013-11-27 15:24:00,
2013-11-27 10:25:00,42.8,41.5,29.40,West,276,0.0,2.0,95,0.04,,,2.22,520,WeatherCatV1.22B15,2013-11-27 15:25:00,
2013-11-27 10:26:00,42.8,41.5,29.40,West,277,1.0,2.0,95,0.04,,,2.22,520,WeatherCatV1.22B15,2013-11-27 15:26:00,
2013-11-27 10:27:00,42.8,41.5,29.40,West,277,1.0,1.0,95,0.04,,,2.22,520,WeatherCatV1.22B15,2013-11-27 15:27:00,
2013-11-27 10:28:00,42.8,41.5,29.41,West,276,1.0,1.0,95,0.04,,,2.22,520,WeatherCatV1.22B15,2013-11-27 15:28:00,
2013-11-27 10:30:00,42.7,41.4,29.41,West,277,0.0,2.0,95,0.04,,,2.22,520,WeatherCatV1.22B15,2013-11-27 15:30:00,
2013-11-27 10:31:00,42.7,41.4,29.41,West,277,0.0,3.0,95,0.04,,,2.22,520,WeatherCatV1.22B15,2013-11-27 15:31:00,
2013-11-27 10:33:00,42.7,41.4,29.42,West,277,0.0,3.0,95,0.04,,,2.22,520,WeatherCatV1.22B15,2013-11-27 15:33:00,
2013-11-27 10:35:00,42.7,41.4,29.42,West,277,1.0,1.0,95,0.04,,,2.22,520,WeatherCatV1.22B15,2013-11-27 15:35:00,
2013-11-27 10:36:00,42.6,41.3,29.41,West,277,4.0,6.0,95,0.00,,,2.22,520,WeatherCatV1.22B15,2013-11-27 15:36:00,
2013-11-27 10:38:00,42.5,41.2,29.41,West,277,2.0,5.0,95,0.00,,,2.22,520,WeatherCatV1.22B15,2013-11-27 15:38:00,
2013-11-27 10:40:00,42.3,41.0,29.41,West,277,1.0,8.0,95,0.00,,,2.22,520,WeatherCatV1.22B15,2013-11-27 15:40:00,
2013-11-27 10:41:00,42.2,40.6,29.41,West,276,2.0,2.0,94,0.00,,,2.22,520,WeatherCatV1.22B15,2013-11-27 15:41:00,
2013-11-27 10:42:00,42.2,40.6,29.42,West,277,0.0,2.0,94,0.00,,,2.22,520,WeatherCatV1.22B15,2013-11-27 15:42:00,
2013-11-27 10:43:00,42.2,40.9,29.42,West,277,1.0,4.0,95,0.00,,,2.22,520,WeatherCatV1.22B15,2013-11-27 15:43:00,
2013-11-27 10:44:00,42.1,40.8,29.42,West,277,3.0,7.0,95,0.00,,,2.22,520,WeatherCatV1.22B15,2013-11-27 15:44:00,
2013-11-27 10:45:00,42.1,40.8,29.42,West,277,3.0,7.0,95,0.00,,,2.22,520,WeatherCatV1.22B15,2013-11-27 15:45:00,
2013-11-27 10:47:00,42.0,40.7,29.42,West,276,1.0,3.0,95,0.00,,,2.22,520,WeatherCatV1.22B15,2013-11-27 15:47:00,
2013-11-27 10:48:00,42.0,40.7,29.41,West,276,6.0,6.0,95,0.00,,,2.22,520,WeatherCatV1.22B15,2013-11-27 15:48:00,
2013-11-27 10:49:00,41.9,40.6,29.41,West,277,3.0,6.0,95,0.00,,,2.22,520,WeatherCatV1.22B15,2013-11-27 15:49:00,
2013-11-27 10:50:00,41.8,40.2,29.40,West,277,3.0,6.0,94,0.00,,,2.23,520,WeatherCatV1.22B15,2013-11-27 15:50:00,
2013-11-27 10:52:00,41.7,40.1,29.39,West,277,1.0,4.0,94,0.00,,,2.23,520,WeatherCatV1.22B15,2013-11-27 15:52:00,
2013-11-27 10:53:00,41.7,40.1,29.39,West,277,1.0,6.0,94,0.00,,,2.23,520,WeatherCatV1.22B15,2013-11-27 15:53:00,
2013-11-27 10:54:00,41.6,40.0,29.37,West,277,1.0,6.0,94,0.00,,,2.23,520,WeatherCatV1.22B15,2013-11-27 15:54:00,
2013-11-27 10:55:00,41.6,40.0,29.35,West,277,1.0,2.0,94,0.00,,,2.23,520,WeatherCatV1.22B15,2013-11-27 15:55:00,
2013-11-27 10:57:00,41.5,39.9,29.33,West,276,0.0,2.0,94,0.00,,,2.23,520,WeatherCatV1.22B15,2013-11-27 15:57:00,
2013-11-27 10:58:00,41.5,40.2,29.34,West,277,1.0,3.0,95,0.00,,,2.23,520,WeatherCatV1.22B15,2013-11-27 15:58:00,
2013-11-27 11:00:00,41.4,40.1,29.37,West,277,2.0,7.0,95,0.00,,,2.23,520,WeatherCatV1.22B15,2013-11-27 16:00:00,
2013-11-27 11:02:00,41.4,40.1,29.39,West,277,1.0,3.0,95,0.00,,,2.23,520,WeatherCatV1.22B15,2013-11-27 16:02:00,
2013-11-27 11:04:00,41.3,40.0,29.40,West,277,1.0,7.0,95,0.00,,,2.23,520,WeatherCatV1.22B15,2013-11-27 16:04:00,
2013-11-27 11:05:00,41.3,39.7,29.41,West,276,2.0,4.0,94,0.00,,,2.23,520,WeatherCatV1.22B15,2013-11-27 16:05:00,
2013-11-27 11:07:00,41.2,39.6,29.40,West,277,1.0,6.0,94,0.00,,,2.23,520,WeatherCatV1.22B15,2013-11-27 16:07:00,
2013-11-27 11:08:00,41.2,39.6,29.39,West,277,1.0,6.0,94,0.00,,,2.23,520,WeatherCatV1.22B15,2013-11-27 16:08:00,
2013-11-27 11:09:00,41.2,39.6,29.38,West,277,1.0,2.0,94,0.00,,,2.23,520,WeatherCatV1.22B15,2013-11-27 16:09:00,
2013-11-27 11:10:00,41.1,39.5,29.38,West,277,1.0,3.0,94,0.00,,,2.23,520,WeatherCatV1.22B15,2013-11-27 16:10:00,
2013-11-27 11:11:00,41.1,39.5,29.38,West,277,1.0,3.0,94,0.00,,,2.23,520,WeatherCatV1.22B15,2013-11-27 16:11:00,
2013-11-27 11:13:00,40.9,39.3,29.39,West,277,6.0,7.0,94,0.00,,,2.23,520,WeatherCatV1.22B15,2013-11-27 16:13:00,
2013-11-27 11:14:00,40.8,39.2,29.40,West,277,2.0,7.0,94,0.00,,,2.23,520,WeatherCatV1.22B15,2013-11-27 16:14:00,
2013-11-27 11:15:00,40.7,39.1,29.40,West,277,2.0,6.0,94,0.00,,,2.23,520,WeatherCatV1.22B15,2013-11-27 16:15:00,
2013-11-27 11:16:00,40.7,38.8,29.40,West,277,0.0,2.0,93,0.00,,,2.23,520,WeatherCatV1.22B15,2013-11-27 16:16:00,
2013-11-27 11:18:00,40.6,39.0,29.39,West,277,2.0,3.0,94,0.00,,,2.23,520,WeatherCatV1.22B15,2013-11-27 16:18:00,
2013-11-27 11:19:00,40.6,39.0,29.38,West,277,0.0,3.0,94,0.00,,,2.23,520,WeatherCatV1.22B15,2013-11-27 16:19:00,
2013-11-27 11:20:00,40.5,38.9,29.38,West,277,1.0,8.0,94,0.00,,,2.23,520,WeatherCatV1.22B15,2013-11-27 16:20:00,
2013-11-27 11:21:00,40.5,38.9,29.38,West,277,0.0,8.0,94,0.00,,,2.23,520,WeatherCatV1.22B15,2013-11-27 16:21:00,
2013-11-27 11:23:00,40.4,38.8,29.38,West,277,0.0,5.0,94,0.00,,,2.23,520,WeatherCatV1.22B15,2013-11-27 16:23:00,
2013-11-27 11:24:00,40.4,38.8,29.38,West,277,2.0,3.0,94,0.00,,,2.23,520,WeatherCatV1.22B15,2013-11-27 16:24:00,
2013-11-27 11:25:00,40.3,38.7,29.38,West,276,1.0,6.0,94,0.00,,,2.23,520,WeatherCatV1.22B15,2013-11-27 16:25:00,
2013-11-27 11:26:00,40.3,38.7,29.38,West,277,1.0,6.0,94,0.00,,,2.23,520,WeatherCatV1.22B15,2013-11-27 16:26:00,
2013-11-27 11:27:00,40.3,38.7,29.38,West,276,3.0,6.0,94,0.00,,,2.23,520,WeatherCatV1.22B15,2013-11-27 16:27:00,
2013-11-27 11:28:00,40.2,38.6,29.38,West,277,0.0,5.0,94,0.00,,,2.23,520,WeatherCatV1.22B15,2013-11-27 16:28:00,
2013-11-27 11:29:00,40.2,38.6,29.39,West,277,1.0,5.0,94,0.00,,,2.23,520,WeatherCatV1.22B15,2013-11-27 16:29:00,
2013-11-27 11:30:00,40.2,38.6,29.39,West,277,1.0,3.0,94,0.00,,,2.23,520,WeatherCatV1.22B15,2013-11-27 16:30:00,
2013-11-27 11:31:00,40.2,38.6,29.39,West,277,0.0,3.0,94,0.00,,,2.23,520,WeatherCatV1.22B15,2013-11-27 16:31:00,
2013-11-27 11:32:00,40.2,38.6,29.40,West,277,2.0,3.0,94,0.00,,,2.23,520,WeatherCatV1.22B15,2013-11-27 16:32:00,
2013-11-27 11:33:00,40.1,38.5,29.39,West,277,1.0,4.0,94,0.00,,,2.23,520,WeatherCatV1.22B15,2013-11-27 16:33:00,
2013-11-27 11:34:00,40.1,38.5,29.39,West,277,1.0,4.0,94,0.00,,,2.23,520,WeatherCatV1.22B15,2013-11-27 16:34:00,
2013-11-27 11:36:00,40.1,38.5,29.39,West,276,1.0,1.0,94,0.00,,,2.23,520,WeatherCatV1.22B15,2013-11-27 16:36:00,
2013-11-27 11:37:00,40.1,38.5,29.40,West,277,1.0,1.0,94,0.00,,,2.23,520,WeatherCatV1.22B15,2013-11-27 16:37:00,
2013-11-27 11:38:00,40.1,38.5,29.40,West,277,0.0,1.0,94,0.00,,,2.23,520,WeatherCatV1.22B15,2013-11-27 16:38:00,
2013-11-27 11:39:00,40.0,38.4,29.40,West,277,1.0,3.0,94,0.00,,,2.23,520,WeatherCatV1.22B15,2013-11-27 16:39:00,
2013-11-27 11:41:00,39.9,38.0,29.40,West,277,2.0,11.0,93,0.00,,,2.23,520,WeatherCatV1.22B15,2013-11-27 16:41:00,
2013-11-27 11:42:00,39.9,38.0,29.40,West,277,1.0,4.0,93,0.00,,,2.23,520,WeatherCatV1.22B15,2013-11-27 16:42:00,
2013-11-27 11:43:00,39.9,38.0,29.40,West,277,1.0,2.0,93,0.00,,,2.23,520,WeatherCatV1.22B15,2013-11-27 16:43:00,
2013-11-27 11:44:00,39.8,38.2,29.40,West,277,1.0,3.0,94,0.00,,,2.23,520,WeatherCatV1.22B15,2013-11-27 16:44:00,
2013-11-27 11:46:00,39.7,37.8,29.40,West,277,2.0,4.0,93,0.00,,,2.23,520,WeatherCatV1.22B15,2013-11-27 16:46:00,
2013-11-27 11:47:00,39.7,37.8,29.40,West,277,2.0,3.0,93,0.00,,,2.23,520,WeatherCatV1.22B15,2013-11-27 16:47:00,
2013-11-27 11:48:00,39.7,37.8,29.40,West,277,2.0,7.0,93,0.00,,,2.23,520,WeatherCatV1.22B15,2013-11-27 16:48:00,
2013-11-27 11:49:00,39.7,37.8,29.40,West,277,2.0,7.0,93,0.00,,,2.23,520,WeatherCatV1.22B15,2013-11-27 16:49:00,
2013-11-27 11:52:00,39.6,37.8,29.40,West,277,1.0,2.0,93,0.00,,,2.23,520,WeatherCatV1.22B15,2013-11-27 16:52:00,
2013-11-27 11:53:00,39.6,37.8,29.40,West,277,3.0,6.0,93,0.00,,,2.23,520,WeatherCatV1.22B15,2013-11-27 16:53:00,
2013-11-27 11:54:00,39.5,37.7,29.40,West,277,2.0,6.0,93,0.00,,,2.23,520,WeatherCatV1.22B15,2013-11-27 16:54:00,
2013-11-27 11:57:00,39.5,37.4,29.39,West,277,2.0,3.0,92,0.00,,,2.23,520,WeatherCatV1.22B15,2013-11-27 16:57:00,
2013-11-27 11:58:00,39.5,37.4,29.39,West,277,0.0,5.0,92,0.00,,,2.23,520,WeatherCatV1.22B15,2013-11-27 16:58:00,
2013-11-27 11:59:00,39.5,37.7,29.39,West,277,2.0,5.0,93,0.00,,,2.23,520,WeatherCatV1.22B15,2013-11-27 16:59:00,
2013-11-27 12:02:00,39.4,37.5,29.38,West,277,1.0,4.0,93,0.00,,,2.23,520,WeatherCatV1.22B15,2013-11-27 17:02:00,
2013-11-27 12:03:00,39.3,37.5,29.39,West,277,0.0,4.0,93,0.00,,,2.23,520,WeatherCatV1.22B15,2013-11-27 17:03:00,
2013-11-27 12:04:00,39.3,37.5,29.39,West,277,0.0,2.0,93,0.00,,,2.23,520,WeatherCatV1.22B15,2013-11-27 17:04:00,
2013-11-27 12:08:00,39.2,37.3,29.41,West,277,2.0,3.0,93,0.00,,,2.23,520,WeatherCatV1.22B15,2013-11-27 17:08:00,
2013-11-27 12:09:00,39.3,37.2,29.41,West,277,1.0,3.0,92,0.00,,,2.23,520,WeatherCatV1.22B15,2013-11-27 17:09:00,
2013-11-27 12:10:00,39.3,37.5,29.41,West,277,4.0,5.0,93,0.00,,,2.23,520,WeatherCatV1.22B15,2013-11-27 17:10:00,
2013-11-27 12:13:00,39.2,37.1,29.40,West,277,2.0,7.0,92,0.00,,,2.23,520,WeatherCatV1.22B15,2013-11-27 17:13:00,
2013-11-27 12:14:00,39.3,37.2,29.40,West,277,1.0,7.0,92,0.00,,,2.23,520,WeatherCatV1.22B15,2013-11-27 17:14:00,
2013-11-27 12:15:00,39.2,37.1,29.40,West,277,1.0,2.0,92,0.00,,,2.23,520,WeatherCatV1.22B15,2013-11-27 17:15:00,
2013-11-27 12:18:00,39.2,37.1,29.40,West,277,1.0,5.0,92,0.00,,,2.23,520,WeatherCatV1.22B15,2013-11-27 17:18:00,
2013-11-27 12:19:00,39.2,37.3,29.39,West,276,1.0,5.0,93,0.00,,,2.23,520,WeatherCatV1.22B15,2013-11-27 17:19:00,
2013-11-27 12:20:00,39.2,37.3,29.40,West,277,0.0,5.0,93,0.00,,,2.23,520,WeatherCatV1.22B15,2013-11-27 17:20:00,
2013-11-27 12:24:00,39.1,37.0,29.39,West,276,1.0,4.0,92,0.00,,,2.23,520,WeatherCatV1.22B15,2013-11-27 17:24:00,
2013-11-27 12:25:00,39.1,37.0,29.39,West,276,1.0,3.0,92,0.00,,,2.23,520,WeatherCatV1.22B15,2013-11-27 17:25:00,
2013-11-27 12:26:00,39.1,37.2,29.39,West,277,3.0,6.0,93,0.00,,,2.23,520,WeatherCatV1.22B15,2013-11-27 17:26:00,
2013-11-27 12:30:00,39.0,36.9,29.40,West,277,3.0,5.0,92,0.00,,,2.23,520,WeatherCatV1.22B15,2013-11-27 17:30:00,
2013-11-27 12:31:00,39.0,36.9,29.40,West,277,1.0,5.0,92,0.00,,,2.23,520,WeatherCatV1.22B15,2013-11-27 17:31:00,
2013-11-27 12:35:00,38.9,36.8,29.40,West,277,2.0,3.0,92,0.00,,,2.23,520,WeatherCatV1.22B15,2013-11-27 17:35:00,
2013-11-27 12:36:00,38.9,36.8,29.39,West,277,2.0,4.0,92,0.00,,,2.23,520,WeatherCatV1.22B15,2013-11-27 17:36:00,
2013-11-27 12:40:00,38.9,36.5,29.40,West,277,2.0,3.0,91,0.00,,,2.23,520,WeatherCatV1.22B15,2013-11-27 17:40:00,
2013-11-27 12:41:00,38.9,36.5,29.40,West,277,1.0,3.0,91,0.00,,,2.23,520,WeatherCatV1.22B15,2013-11-27 17:41:00,
2013-11-27 12:42:00,38.9,36.8,29.40,West,277,1.0,2.0,92,0.00,,,2.23,520,WeatherCatV1.22B15,2013-11-27 17:42:00,
2013-11-27 12:45:00,38.9,37.0,29.40,West,277,1.0,4.0,93,0.00,,,2.23,520,WeatherCatV1.22B15,2013-11-27 17:45:00,
2013-11-27 12:46:00,38.9,36.8,29.40,West,277,3.0,3.0,92,0.00,,,2.23,520,WeatherCatV1.22B15,2013-11-27 17:46:00,
2013-11-27 12:47:00,38.9,36.8,29.39,West,277,2.0,5.0,92,0.00,,,2.23,520,WeatherCatV1.22B15,2013-11-27 17:47:00,
2013-11-27 12:50:00,38.8,36.7,29.39,West,277,1.0,6.0,92,0.00,,,2.23,520,WeatherCatV1.22B15,2013-11-27 17:50:00,
2013-11-27 12:51:00,38.8,36.7,29.39,West,277,4.0,5.0,92,0.00,,,2.23,520,WeatherCatV1.22B15,2013-11-27 17:51:00,
2013-11-27 12:52:00,38.8,36.7,29.38,West,277,2.0,5.0,92,0.00,,,2.23,520,WeatherCatV1.22B15,2013-11-27 17:52:00,
2013-11-27 12:55:00,38.7,36.6,29.38,West,277,1.0,5.0,92,0.00,,,2.23,520,WeatherCatV1.22B15,2013-11-27 17:55:00,
2013-11-27 12:56:00,38.7,36.6,29.37,West,277,1.0,3.0,92,0.00,,,2.23,520,WeatherCatV1.22B15,2013-11-27 17:56:00,
2013-11-27 12:57:00,38.7,36.6,29.37,West,277,5.0,7.0,92,0.00,,,2.23,520,WeatherCatV1.22B15,2013-11-27 17:57:00,
2013-11-27 13:00:00,38.7,36.6,29.38,West,277,1.0,3.0,92,0.00,,,2.23,520,WeatherCatV1.22B15,2013-11-27 18:00:00,
2013-11-27 13:01:00,38.7,36.6,29.38,West,277,1.0,3.0,92,0.00,,,2.23,520,WeatherCatV1.22B15,2013-11-27 18:01:00,
2013-11-27 13:02:00,38.7,36.6,29.38,West,277,2.0,3.0,92,0.00,,,2.23,520,WeatherCatV1.22B15,2013-11-27 18:02:00,
2013-11-27 13:03:00,38.7,36.6,29.38,West,277,1.0,2.0,92,0.00,,,2.23,520,WeatherCatV1.22B15,2013-11-27 18:03:00,
2013-11-27 13:05:00,38.5,36.1,29.39,West,277,2.0,6.0,91,0.00,,,2.23,520,WeatherCatV1.22B15,2013-11-27 18:05:00,
2013-11-27 13:06:00,38.5,36.1,29.39,West,277,2.0,6.0,91,0.00,,,2.23,520,WeatherCatV1.22B15,2013-11-27 18:06:00,
2013-11-27 13:07:00,38.5,36.1,29.39,West,277,3.0,3.0,91,0.00,,,2.23,520,WeatherCatV1.22B15,2013-11-27 18:07:00,
2013-11-27 13:08:00,38.5,36.4,29.38,West,277,0.0,3.0,92,0.00,,,2.23,520,WeatherCatV1.22B15,2013-11-27 18:08:00,
2013-11-27 13:11:00,38.5,36.4,29.38,West,277,1.0,3.0,92,0.00,,,2.23,520,WeatherCatV1.22B15,2013-11-27 18:11:00,
2013-11-27 13:12:00,38.5,36.4,29.38,West,277,3.0,4.0,92,0.00,,,2.23,520,WeatherCatV1.22B15,2013-11-27 18:12:00,
2013-11-27 13:13:00,38.5,36.4,29.38,West,277,2.0,4.0,92,0.00,,,2.23,520,WeatherCatV1.22B15,2013-11-27 18:13:00,
2013-11-27 13:16:00,38.4,36.3,29.38,West,277,2.0,5.0,92,0.00,,,2.23,520,WeatherCatV1.22B15,2013-11-27 18:16:00,
2013-11-27 13:17:00,38.4,36.3,29.38,West,277,1.0,4.0,92,0.00,,,2.23,520,WeatherCatV1.22B15,2013-11-27 18:17:00,
2013-11-27 13:18:00,38.4,36.3,29.38,West,277,7.0,7.0,92,0.00,,,2.24,520,WeatherCatV1.22B15,2013-11-27 18:18:00,
2013-11-27 13:19:00,38.4,36.0,29.38,West,277,1.0,7.0,91,0.00,,,2.24,520,WeatherCatV1.22B15,2013-11-27 18:19:00,
2013-11-27 13:21:00,38.3,35.9,29.38,West,277,4.0,4.0,91,0.00,,,2.24,520,WeatherCatV1.22B15,2013-11-27 18:21:00,
2013-11-27 13:23:00,38.3,35.9,29.38,West,277,1.0,6.0,91,0.00,,,2.24,520,WeatherCatV1.22B15,2013-11-27 18:23:00,
2013-11-27 13:24:00,38.3,35.9,29.38,West,277,2.0,4.0,91,0.00,,,2.24,520,WeatherCatV1.22B15,2013-11-27 18:24:00,
2013-11-27 13:26:00,38.3,35.9,29.38,West,277,2.0,3.0,91,0.00,,,2.24,520,WeatherCatV1.22B15,2013-11-27 18:26:00,
2013-11-27 13:28:00,38.3,36.2,29.38,West,277,2.0,4.0,92,0.00,,,2.24,520,WeatherCatV1.22B15,2013-11-27 18:28:00,
2013-11-27 13:29:00,38.3,36.2,29.37,West,277,1.0,4.0,92,0.00,,,2.24,520,WeatherCatV1.22B15,2013-11-27 18:29:00,
2013-11-27 13:31:00,38.3,36.2,29.38,West,277,1.0,2.0,92,0.00,,,2.24,520,WeatherCatV1.22B15,2013-11-27 18:31:00,
2013-11-27 13:34:00,38.2,36.1,29.38,West,277,2.0,5.0,92,0.00,,,2.24,520,WeatherCatV1.22B15,2013-11-27 18:34:00,
2013-11-27 13:36:00,38.1,36.0,29.39,West,277,3.0,7.0,92,0.00,,,2.24,520,WeatherCatV1.22B15,2013-11-27 18:36:00,
2013-11-27 13:39:00,38.0,35.9,29.40,West,277,3.0,6.0,92,0.00,,,2.24,520,WeatherCatV1.22B15,2013-11-27 18:39:00,
2013-11-27 13:42:00,38.0,35.9,29.41,West,277,1.0,3.0,92,0.00,,,2.24,520,WeatherCatV1.22B15,2013-11-27 18:42:00,
2013-11-27 13:44:00,37.9,35.8,29.42,West,277,3.0,7.0,92,0.00,,,2.24,520,WeatherCatV1.22B15,2013-11-27 18:44:00,
2013-11-27 13:45:00,37.9,35.8,29.42,West,277,4.0,7.0,92,0.00,,,2.24,520,WeatherCatV1.22B15,2013-11-27 18:45:00,
2013-11-27 13:47:00,37.9,35.8,29.42,West,277,2.0,3.0,92,0.00,,,2.24,520,WeatherCatV1.22B15,2013-11-27 18:47:00,
2013-11-27 13:49:00,37.8,35.7,29.42,West,277,1.0,4.0,92,0.00,,,2.24,520,WeatherCatV1.22B15,2013-11-27 18:49:00,
2013-11-27 13:50:00,37.8,35.7,29.41,West,277,1.0,4.0,92,0.00,,,2.24,520,WeatherCatV1.22B15,2013-11-27 18:50:00,
2013-11-27 13:52:00,37.8,35.7,29.41,West,277,1.0,3.0,92,0.00,,,2.24,520,WeatherCatV1.22B15,2013-11-27 18:52:00,
2013-11-27 13:55:00,37.8,35.7,29.39,West,277,2.0,3.0,92,0.00,,,2.24,520,WeatherCatV1.22B15,2013-11-27 18:55:00,
2013-11-27 13:56:00,37.7,35.6,29.39,West,277,1.0,11.0,92,0.00,,,2.24,520,WeatherCatV1.22B15,2013-11-27 18:56:00,
2013-11-27 13:57:00,37.7,35.6,29.39,West,277,1.0,11.0,92,0.00,,,2.25,520,WeatherCatV1.22B15,2013-11-27 18:57:00,
2013-11-27 14:00:00,37.7,35.6,29.39,West,277,1.0,2.0,92,0.00,,,2.25,520,WeatherCatV1.22B15,2013-11-27 19:00:00,
2013-11-27 14:01:00,37.7,35.9,29.40,West,277,1.0,2.0,93,0.00,,,2.25,520,WeatherCatV1.22B15,2013-11-27 19:01:00,
2013-11-27 14:02:00,37.6,35.8,29.39,West,277,1.0,4.0,93,0.00,,,2.25,520,WeatherCatV1.22B15,2013-11-27 19:02:00,
2013-11-27 14:05:00,37.5,35.7,29.39,West,277,5.0,6.0,93,0.00,,,2.25,520,WeatherCatV1.22B15,2013-11-27 19:05:00,
2013-11-27 14:06:00,37.5,35.4,29.39,West,277,2.0,7.0,92,0.07,,,2.26,520,WeatherCatV1.22B15,2013-11-27 19:06:00,
2013-11-27 14:07:00,37.4,35.3,29.39,West,277,2.0,4.0,92,0.07,,,2.26,520,WeatherCatV1.22B15,2013-11-27 19:07:00,
2013-11-27 14:10:00,37.3,35.2,29.38,West,277,1.0,4.0,92,0.07,,,2.26,520,WeatherCatV1.22B15,2013-11-27 19:10:00,
2013-11-27 14:11:00,37.3,35.2,29.38,West,277,3.0,4.0,92,0.07,,,2.26,520,WeatherCatV1.22B15,2013-11-27 19:11:00,
2013-11-27 14:13:00,37.3,35.2,29.37,West,277,1.0,5.0,92,0.07,,,2.26,520,WeatherCatV1.22B15,2013-11-27 19:13:00,
2013-11-27 14:15:00,37.2,35.4,29.37,West,277,1.0,4.0,93,0.06,,,2.26,520,WeatherCatV1.22B15,2013-11-27 19:15:00,
2013-11-27 14:16:00,37.2,35.4,29.37,West,277,1.0,4.0,93,0.06,,,2.26,520,WeatherCatV1.22B15,2013-11-27 19:16:00,
2013-11-27 14:18:00,37.2,35.4,29.37,West,277,1.0,6.0,93,0.05,,,2.26,520,WeatherCatV1.22B15,2013-11-27 19:18:00,
2013-11-27 14:21:00,37.2,35.4,29.39,West,277,1.0,2.0,93,0.04,,,2.26,520,WeatherCatV1.22B15,2013-11-27 19:21:00,
2013-11-27 14:22:00,37.2,35.4,29.38,West,277,1.0,2.0,93,0.04,,,2.26,520,WeatherCatV1.22B15,2013-11-27 19:22:00,
2013-11-27 14:23:00,37.2,35.4,29.38,West,277,1.0,2.0,93,0.00,,,2.26,520,WeatherCatV1.22B15,2013-11-27 19:23:00,
2013-11-27 14:26:00,37.1,35.3,29.38,West,277,1.0,7.0,93,0.00,,,2.26,520,WeatherCatV1.22B15,2013-11-27 19:26:00,
2013-11-27 14:27:00,37.1,35.3,29.38,West,277,0.0,3.0,93,0.00,,,2.26,520,WeatherCatV1.22B15,2013-11-27 19:27:00,
2013-11-27 14:28:00,37.2,35.4,29.38,West,277,2.0,3.0,93,0.00,,,2.26,520,WeatherCatV1.22B15,2013-11-27 19:28:00,
2013-11-27 14:31:00,37.1,35.3,29.37,West,277,1.0,4.0,93,0.00,,,2.26,520,WeatherCatV1.22B15,2013-11-27 19:31:00,
2013-11-27 14:32:00,37.1,35.3,29.36,West,277,2.0,3.0,93,0.00,,,2.26,520,WeatherCatV1.22B15,2013-11-27 19:32:00,
2013-11-27 14:33:00,37.1,35.3,29.36,West,277,2.0,5.0,93,0.00,,,2.26,520,WeatherCatV1.22B15,2013-11-27 19:33:00,
2013-11-27 14:36:00,37.1,35.0,29.37,West,277,1.0,7.0,92,0.00,,,2.26,520,WeatherCatV1.22B15,2013-11-27 19:36:00,
2013-11-27 14:37:00,37.1,35.0,29.36,West,278,0.0,7.0,92,0.00,,,2.26,520,WeatherCatV1.22B15,2013-11-27 19:37:00,
2013-11-27 14:38:00,37.1,35.0,29.36,West,277,1.0,3.0,92,0.00,,,2.26,520,WeatherCatV1.22B15,2013-11-27 19:38:00,
2013-11-27 14:39:00,37.1,35.3,29.36,West,277,1.0,4.0,93,0.00,,,2.26,520,WeatherCatV1.22B15,2013-11-27 19:39:00,
2013-11-27 14:41:00,37.1,35.0,29.36,West,277,1.0,5.0,92,0.00,,,2.26,520,WeatherCatV1.22B15,2013-11-27 19:41:00,
2013-11-27 14:42:00,37.1,35.0,29.36,West,277,3.0,5.0,92,0.00,,,2.26,520,WeatherCatV1.22B15,2013-11-27 19:42:00,
2013-11-27 14:43:00,37.1,35.0,29.37,West,277,3.0,5.0,92,0.00,,,2.26,520,WeatherCatV1.22B15,2013-11-27 19:43:00,
2013-11-27 14:44:00,37.1,35.0,29.37,West,277,0.0,3.0,92,0.00,,,2.26,520,WeatherCatV1.22B15,2013-11-27 19:44:00,
2013-11-27 14:47:00,37.1,35.0,29.37,West,277,4.0,7.0,92,0.00,,,2.26,520,WeatherCatV1.22B15,2013-11-27 19:47:00,
2013-11-27 14:48:00,37.1,35.0,29.37,West,277,0.0,6.0,92,0.00,,,2.26,520,WeatherCatV1.22B15,2013-11-27 19:48:00,
2013-11-27 14:49:00,37.1,35.0,29.37,West,277,1.0,6.0,92,0.00,,,2.26,520,WeatherCatV1.22B15,2013-11-27 19:49:00,
2013-11-27 14:52:00,37.1,35.0,29.37,West,277,2.0,7.0,92,0.00,,,2.26,520,WeatherCatV1.22B15,2013-11-27 19:52:00,
2013-11-27 14:53:00,37.1,35.0,29.36,West,277,2.0,5.0,92,0.00,,,2.26,520,WeatherCatV1.22B15,2013-11-27 19:53:00,
2013-11-27 14:54:00,37.1,35.0,29.36,West,277,3.0,4.0,92,0.00,,,2.26,520,WeatherCatV1.22B15,2013-11-27 19:54:00,
2013-11-27 14:57:00,37.1,35.0,29.37,West,277,4.0,9.0,92,0.00,,,2.26,520,WeatherCatV1.22B15,2013-11-27 19:57:00,
2013-11-27 14:58:00,37.1,35.0,29.38,West,277,2.0,4.0,92,0.00,,,2.26,520,WeatherCatV1.22B15,2013-11-27 19:58:00,
2013-11-27 14:59:00,37.1,35.0,29.38,West,277,2.0,4.0,92,0.00,,,2.26,520,WeatherCatV1.22B15,2013-11-27 19:59:00,
2013-11-27 15:02:00,37.1,35.0,29.37,West,277,2.0,4.0,92,0.00,,,2.26,520,WeatherCatV1.22B15,2013-11-27 20:02:00,
2013-11-27 15:03:00,37.1,35.0,29.36,West,277,2.0,3.0,92,0.00,,,2.26,520,WeatherCatV1.22B15,2013-11-27 20:03:00,
2013-11-27 15:04:00,37.1,35.0,29.36,West,277,3.0,3.0,92,0.00,,,2.26,520,WeatherCatV1.22B15,2013-11-27 20:04:00,
2013-11-27 15:05:00,37.1,35.0,29.36,West,277,3.0,7.0,92,0.00,,,2.26,520,WeatherCatV1.22B15,2013-11-27 20:05:00,
2013-11-27 15:07:00,37.0,34.9,29.36,West,277,0.0,3.0,92,0.00,,,2.26,520,WeatherCatV1.22B15,2013-11-27 20:07:00,
2013-11-27 15:09:00,37.0,34.9,29.36,West,277,5.0,8.0,92,0.00,,,2.26,520,WeatherCatV1.22B15,2013-11-27 20:09:00,
2013-11-27 15:10:00,37.0,34.9,29.37,West,276,4.0,8.0,92,0.00,,,2.26,520,WeatherCatV1.22B15,2013-11-27 20:10:00,
2013-11-27 15:12:00,36.9,34.8,29.37,West,278,1.0,8.0,92,0.00,,,2.26,520,WeatherCatV1.22B15,2013-11-27 20:12:00,
2013-11-27 15:14:00,36.9,34.8,29.38,West,277,2.0,8.0,92,0.00,,,2.26,520,WeatherCatV1.22B15,2013-11-27 20:14:00,
2013-11-27 15:15:00,36.9,34.8,29.39,West,277,1.0,8.0,92,0.00,,,2.26,520,WeatherCatV1.22B15,2013-11-27 20:15:00,
2013-11-27 15:17:00,36.9,34.5,29.39,West,277,1.0,9.0,91,0.00,,,2.26,520,WeatherCatV1.22B15,2013-11-27 20:17:00,
2013-11-27 15:19:00,36.9,34.8,29.39,West,277,1.0,4.0,92,0.00,,,2.26,520,WeatherCatV1.22B15,2013-11-27 20:19:00,
2013-11-27 15:20:00,36.9,34.8,29.39,West,277,2.0,4.0,92,0.00,,,2.26,520,WeatherCatV1.22B15,2013-11-27 20:20:00,
2013-11-27 15:22:00,36.9,34.8,29.39,West,277,1.0,5.0,92,0.00,,,2.26,520,WeatherCatV1.22B15,2013-11-27 20:22:00,
2013-11-27 15:23:00,36.9,34.8,29.39,West,277,6.0,7.0,92,0.00,,,2.26,520,WeatherCatV1.22B15,2013-11-27 20:23:00,
2013-11-27 15:24:00,36.9,34.5,29.39,West,278,3.0,9.0,91,0.00,,,2.26,520,WeatherCatV1.22B15,2013-11-27 20:24:00,
2013-11-27 15:25:00,36.9,34.5,29.39,West,277,2.0,9.0,91,0.00,,,2.26,520,WeatherCatV1.22B15,2013-11-27 20:25:00,
2013-11-27 15:27:00,36.9,34.5,29.39,West,277,3.0,6.0,91,0.00,,,2.26,520,WeatherCatV1.22B15,2013-11-27 20:27:00,
2013-11-27 15:28:00,36.9,34.5,29.39,West,277,4.0,6.0,91,0.00,,,2.26,520,WeatherCatV1.22B15,2013-11-27 20:28:00,
2013-11-27 15:29:00,36.9,34.5,29.39,West,277,1.0,6.0,91,0.00,,,2.26,520,WeatherCatV1.22B15,2013-11-27 20:29:00,
2013-11-27 15:30:00,36.9,34.5,29.40,West,278,3.0,8.0,91,0.00,,,2.26,520,WeatherCatV1.22B15,2013-11-27 20:30:00,
2013-11-27 15:32:00,36.9,34.5,29.41,West,277,2.0,5.0,91,0.00,,,2.26,520,WeatherCatV1.22B15,2013-11-27 20:32:00,
2013-11-27 15:33:00,36.9,34.5,29.41,West,277,2.0,5.0,91,0.00,,,2.26,520,WeatherCatV1.22B15,2013-11-27 20:33:00,
2013-11-27 15:34:00,36.9,34.5,29.41,West,277,2.0,5.0,91,0.00,,,2.26,520,WeatherCatV1.22B15,2013-11-27 20:34:00,
2013-11-27 15:35:00,36.9,34.5,29.40,West,277,3.0,5.0,91,0.00,,,2.26,520,WeatherCatV1.22B15,2013-11-27 20:35:00,
2013-11-27 15:36:00,36.9,34.5,29.39,West,277,1.0,5.0,91,0.00,,,2.26,520,WeatherCatV1.22B15,2013-11-27 20:36:00,
2013-11-27 15:37:00,36.9,34.5,29.39,West,277,3.0,3.0,91,0.00,,,2.26,520,WeatherCatV1.22B15,2013-11-27 20:37:00,
2013-11-27 15:38:00,36.9,34.5,29.39,West,277,2.0,3.0,91,0.00,,,2.26,520,WeatherCatV1.22B15,2013-11-27 20:38:00,
2013-11-27 15:40:00,36.9,34.5,29.39,West,277,2.0,3.0,91,0.00,,,2.26,520,WeatherCatV1.22B15,2013-11-27 20:40:00,
2013-11-27 15:41:00,36.9,34.5,29.38,West,277,2.0,5.0,91,0.00,,,2.26,520,WeatherCatV1.22B15,2013-11-27 20:41:00,
2013-11-27 15:42:00,36.8,34.4,29.37,West,277,1.0,5.0,91,0.00,,,2.26,520,WeatherCatV1.22B15,2013-11-27 20:42:00,
2013-11-27 15:44:00,36.8,34.4,29.38,West,278,2.0,3.0,91,0.00,,,2.26,520,WeatherCatV1.22B15,2013-11-27 20:44:00,
2013-11-27 15:45:00,36.8,34.4,29.39,West,277,4.0,4.0,91,0.00,,,2.26,520,WeatherCatV1.22B15,2013-11-27 20:45:00,
2013-11-27 15:47:00,36.8,34.4,29.39,West,277,1.0,3.0,91,0.00,,,2.26,520,WeatherCatV1.22B15,2013-11-27 20:47:00,
2013-11-27 15:49:00,36.7,34.3,29.39,West,277,3.0,5.0,91,0.00,,,2.26,520,WeatherCatV1.22B15,2013-11-27 20:49:00,
2013-11-27 15:50:00,36.7,34.3,29.38,West,277,2.0,4.0,91,0.00,,,2.26,520,WeatherCatV1.22B15,2013-11-27 20:50:00,
2013-11-27 15:51:00,36.7,34.3,29.38,West,277,2.0,5.0,91,0.00,,,2.26,520,WeatherCatV1.22B15,2013-11-27 20:51:00,
2013-11-27 15:52:00,36.7,34.3,29.38,West,277,2.0,5.0,91,0.00,,,2.26,520,WeatherCatV1.22B15,2013-11-27 20:52:00,
2013-11-27 15:54:00,36.6,34.2,29.37,West,277,4.0,4.0,91,0.00,,,2.26,520,WeatherCatV1.22B15,2013-11-27 20:54:00,
2013-11-27 15:55:00,36.6,34.2,29.36,West,277,0.0,8.0,91,0.00,,,2.27,520,WeatherCatV1.22B15,2013-11-27 20:55:00,
2013-11-27 15:56:00,36.6,34.2,29.36,West,278,4.0,8.0,91,0.00,,,2.27,520,WeatherCatV1.22B15,2013-11-27 20:56:00,
2013-11-27 15:57:00,36.5,34.4,29.36,West,278,4.0,8.0,92,0.00,,,2.27,520,WeatherCatV1.22B15,2013-11-27 20:57:00,
2013-11-27 15:58:00,36.5,34.1,29.36,West,277,2.0,8.0,91,0.00,,,2.27,520,WeatherCatV1.22B15,2013-11-27 20:58:00,
2013-11-27 16:00:00,36.5,34.4,29.36,West,278,4.0,7.0,92,0.00,,,2.27,520,WeatherCatV1.22B15,2013-11-27 21:00:00,
2013-11-27 16:01:00,36.4,34.0,29.37,West,278,7.0,7.0,91,0.00,,,2.27,520,WeatherCatV1.22B15,2013-11-27 21:01:00,
2013-11-27 16:02:00,36.4,34.0,29.37,West,277,3.0,7.0,91,0.00,,,2.27,520,WeatherCatV1.22B15,2013-11-27 21:02:00,
2013-11-27 16:03:00,36.4,34.0,29.37,West,277,2.0,8.0,91,0.00,,,2.27,520,WeatherCatV1.22B15,2013-11-27 21:03:00,
2013-11-27 16:05:00,36.3,34.2,29.38,West,278,2.0,8.0,92,0.00,,,2.27,520,WeatherCatV1.22B15,2013-11-27 21:05:00,
2013-11-27 16:06:00,36.4,34.3,29.39,West,277,4.0,8.0,92,0.00,,,2.27,520,WeatherCatV1.22B15,2013-11-27 21:06:00,
2013-11-27 16:07:00,36.3,34.2,29.38,West,277,2.0,4.0,92,0.00,,,2.27,520,WeatherCatV1.22B15,2013-11-27 21:07:00,
2013-11-27 16:08:00,36.3,34.2,29.38,West,277,4.0,11.0,92,0.00,,,2.27,520,WeatherCatV1.22B15,2013-11-27 21:08:00,
2013-11-27 16:11:00,36.3,33.9,29.37,West,277,6.0,6.0,91,0.00,,,2.27,520,WeatherCatV1.22B15,2013-11-27 21:11:00,
2013-11-27 16:12:00,36.3,34.2,29.38,West,278,7.0,7.0,92,0.00,,,2.27,520,WeatherCatV1.22B15,2013-11-27 21:12:00,
2013-11-27 16:13:00,36.3,34.2,29.38,West,277,1.0,7.0,92,0.00,,,2.27,520,WeatherCatV1.22B15,2013-11-27 21:13:00,
2013-11-27 16:16:00,36.1,34.0,29.38,West,277,1.0,6.0,92,0.00,,,2.27,520,WeatherCatV1.22B15,2013-11-27 21:16:00,
2013-11-27 16:17:00,36.1,34.0,29.37,West,277,2.0,5.0,92,0.00,,,2.27,520,WeatherCatV1.22B15,2013-11-27 21:17:00,
2013-11-27 16:18:00,36.1,34.0,29.37,West,277,2.0,5.0,92,0.00,,,2.27,520,WeatherCatV1.22B15,2013-11-27 21:18:00,
2013-11-27 16:21:00,36.1,34.0,29.37,West,277,3.0,5.0,92,0.00,,,2.28,520,WeatherCatV1.22B15,2013-11-27 21:21:00,
2013-11-27 16:22:00,36.1,34.0,29.37,West,277,2.0,5.0,92,0.00,,,2.28,520,WeatherCatV1.22B15,2013-11-27 21:22:00,
2013-11-27 16:23:00,36.1,34.0,29.38,West,277,7.0,7.0,92,0.00,,,2.28,520,WeatherCatV1.22B15,2013-11-27 21:23:00,
2013-11-27 16:26:00,35.9,33.8,29.37,West,276,5.0,8.0,92,0.00,,,2.28,520,WeatherCatV1.22B15,2013-11-27 21:26:00,
2013-11-27 16:27:00,35.9,33.8,29.37,West,276,3.0,8.0,92,0.00,,,2.28,520,WeatherCatV1.22B15,2013-11-27 21:27:00,
2013-11-27 16:28:00,35.9,33.8,29.36,West,276,3.0,8.0,92,0.00,,,2.28,520,WeatherCatV1.22B15,2013-11-27 21:28:00,
2013-11-27 16:32:00,35.9,33.8,29.36,West,275,3.0,7.0,92,0.00,,,2.28,520,WeatherCatV1.22B15,2013-11-27 21:32:00,
2013-11-27 16:33:00,35.8,33.7,29.35,West,276,2.0,7.0,92,0.04,,,2.29,520,WeatherCatV1.22B15,2013-11-27 21:33:00,
2013-11-27 16:37:00,35.7,33.6,29.35,West,276,3.0,14.0,92,0.04,,,2.29,520,WeatherCatV1.22B15,2013-11-27 21:37:00,
2013-11-27 16:38:00,35.7,33.6,29.35,West,276,4.0,14.0,92,0.04,,,2.29,520,WeatherCatV1.22B15,2013-11-27 21:38:00,
2013-11-27 16:42:00,35.6,33.8,29.36,West,277,3.0,9.0,93,0.04,,,2.29,520,WeatherCatV1.22B15,2013-11-27 21:42:00,
2013-11-27 16:43:00,35.6,33.8,29.36,West,277,6.0,9.0,93,0.04,,,2.29,520,WeatherCatV1.22B15,2013-11-27 21:43:00,
2013-11-27 16:44:00,35.6,33.8,29.36,West,277,6.0,8.0,93,0.04,,,2.29,520,WeatherCatV1.22B15,2013-11-27 21:44:00,
2013-11-27 16:47:00,35.5,33.7,29.36,West,278,5.0,14.0,93,0.05,,,2.30,520,WeatherCatV1.22B15,2013-11-27 21:47:00,
2013-11-27 16:48:00,35.5,33.4,29.37,West,278,3.0,5.0,92,0.05,,,2.30,520,WeatherCatV1.22B15,2013-11-27 21:48:00,
2013-11-27 16:49:00,35.5,33.7,29.37,West,278,3.0,10.0,93,0.05,,,2.30,520,WeatherCatV1.22B15,2013-11-27 21:49:00,
2013-11-27 16:52:00,35.5,33.7,29.37,West,278,6.0,8.0,93,0.05,,,2.30,520,WeatherCatV1.22B15,2013-11-27 21:52:00,
2013-11-27 16:53:00,35.5,33.4,29.37,West,278,3.0,9.0,92,0.05,,,2.30,520,WeatherCatV1.22B15,2013-11-27 21:53:00,
2013-11-27 16:54:00,35.4,33.3,29.37,West,278,6.0,11.0,92,0.05,,,2.30,520,WeatherCatV1.22B15,2013-11-27 21:54:00,
2013-11-27 16:55:00,35.5,33.4,29.38,West,278,3.0,11.0,92,0.05,,,2.30,520,WeatherCatV1.22B15,2013-11-27 21:55:00,
2013-11-27 16:58:00,35.4,33.3,29.37,West,278,5.0,11.0,92,0.04,,,2.30,520,WeatherCatV1.22B15,2013-11-27 21:58:00,
2013-11-27 16:59:00,35.4,33.3,29.38,West,279,3.0,15.0,92,0.04,,,2.30,520,WeatherCatV1.22B15,2013-11-27 21:59:00,
2013-11-27 17:00:00,35.4,33.3,29.38,West,280,3.0,6.0,92,0.04,,,2.30,520,WeatherCatV1.22B15,2013-11-27 22:00:00,
2013-11-27 17:03:00,35.4,33.3,29.38,West,278,2.0,7.0,92,0.00,,,2.30,520,WeatherCatV1.22B15,2013-11-27 22:03:00,
2013-11-27 17:04:00,35.3,33.2,29.38,West,278,3.0,7.0,92,0.00,,,2.30,520,WeatherCatV1.22B15,2013-11-27 22:04:00,
2013-11-27 17:05:00,35.3,33.2,29.38,West,280,1.0,12.0,92,0.00,,,2.30,520,WeatherCatV1.22B15,2013-11-27 22:05:00,
2013-11-27 17:08:00,35.3,33.2,29.38,West,280,3.0,6.0,92,0.00,,,2.30,520,WeatherCatV1.22B15,2013-11-27 22:08:00,
2013-11-27 17:09:00,35.3,33.2,29.38,West,280,2.0,6.0,92,0.00,,,2.30,520,WeatherCatV1.22B15,2013-11-27 22:09:00,
2013-11-27 17:10:00,35.3,33.2,29.39,West,279,3.0,6.0,92,0.00,,,2.30,520,WeatherCatV1.22B15,2013-11-27 22:10:00,
2013-11-27 17:14:00,35.2,33.1,29.39,West,279,7.0,8.0,92,0.00,,,2.30,520,WeatherCatV1.22B15,2013-11-27 22:14:00,
2013-11-27 17:15:00,35.2,33.1,29.40,West,279,4.0,9.0,92,0.00,,,2.30,520,WeatherCatV1.22B15,2013-11-27 22:15:00,
2013-11-27 17:19:00,35.1,33.0,29.41,West,279,7.0,8.0,92,0.00,,,2.30,520,WeatherCatV1.22B15,2013-11-27 22:19:00,
2013-11-27 17:20:00,35.2,33.1,29.41,West,280,2.0,7.0,92,0.00,,,2.30,520,WeatherCatV1.22B15,2013-11-27 22:20:00,
2013-11-27 17:21:00,35.1,33.0,29.41,West,279,4.0,7.0,92,0.00,,,2.30,520,WeatherCatV1.22B15,2013-11-27 22:21:00,
2013-11-27 17:24:00,35.1,33.0,29.41,West,280,2.0,6.0,92,0.00,,,2.30,520,WeatherCatV1.22B15,2013-11-27 22:24:00,
2013-11-27 17:25:00,35.0,32.9,29.41,West,280,4.0,9.0,92,0.00,,,2.30,520,WeatherCatV1.22B15,2013-11-27 22:25:00,
2013-11-27 17:26:00,35.0,32.9,29.41,West,280,5.0,9.0,92,0.00,,,2.30,520,WeatherCatV1.22B15,2013-11-27 22:26:00,
2013-11-27 17:29:00,34.9,32.8,29.42,West,279,3.0,10.0,92,0.00,,,2.30,520,WeatherCatV1.22B15,2013-11-27 22:29:00,
2013-11-27 17:30:00,34.9,32.8,29.42,West,279,2.0,8.0,92,0.00,,,2.30,520,WeatherCatV1.22B15,2013-11-27 22:30:00,
2013-11-27 17:31:00,34.9,32.8,29.42,West,279,5.0,8.0,92,0.00,,,2.30,520,WeatherCatV1.22B15,2013-11-27 22:31:00,
2013-11-27 17:34:00,34.8,32.7,29.42,West,281,5.0,11.0,92,0.00,,,2.30,520,WeatherCatV1.22B15,2013-11-27 22:34:00,
2013-11-27 17:35:00,34.8,32.7,29.42,West,281,2.0,11.0,92,0.00,,,2.30,520,WeatherCatV1.22B15,2013-11-27 22:35:00,
2013-11-27 17:36:00,34.7,32.6,29.42,West,281,2.0,8.0,92,0.00,,,2.30,520,WeatherCatV1.22B15,2013-11-27 22:36:00,
2013-11-27 17:39:00,34.6,32.8,29.42,West,281,2.0,6.0,93,0.00,,,2.30,520,WeatherCatV1.22B15,2013-11-27 22:39:00,
2013-11-27 17:40:00,34.5,32.7,29.42,West,281,1.0,6.0,93,0.00,,,2.30,520,WeatherCatV1.22B15,2013-11-27 22:40:00,
2013-11-27 17:41:00,34.5,32.7,29.43,West,281,4.0,4.0,93,0.00,,,2.30,520,WeatherCatV1.22B15,2013-11-27 22:41:00,
2013-11-27 17:42:00,34.5,32.7,29.42,West,281,4.0,5.0,93,0.00,,,2.30,520,WeatherCatV1.22B15,2013-11-27 22:42:00,
2013-11-27 17:44:00,34.4,32.6,29.43,West,281,3.0,10.0,93,0.00,,,2.30,520,WeatherCatV1.22B15,2013-11-27 22:44:00,
2013-11-27 17:45:00,34.4,32.6,29.43,West,281,3.0,10.0,93,0.00,,,2.30,520,WeatherCatV1.22B15,2013-11-27 22:45:00,
2013-11-27 17:46:00,34.4,32.6,29.43,West,281,5.0,5.0,93,0.00,,,2.30,520,WeatherCatV1.22B15,2013-11-27 22:46:00,
2013-11-27 17:47:00,34.4,32.6,29.43,West,281,3.0,8.0,93,0.00,,,2.30,520,WeatherCatV1.22B15,2013-11-27 22:47:00,
2013-11-27 17:49:00,34.4,32.6,29.42,West,281,2.0,5.0,93,0.00,,,2.31,520,WeatherCatV1.22B15,2013-11-27 22:49:00,
2013-11-27 17:50:00,34.4,32.6,29.43,West,281,3.0,5.0,93,0.00,,,2.31,520,WeatherCatV1.22B15,2013-11-27 22:50:00,
2013-11-27 17:51:00,34.4,32.6,29.43,West,281,4.0,5.0,93,0.00,,,2.31,520,WeatherCatV1.22B15,2013-11-27 22:51:00,
2013-11-27 17:52:00,34.4,32.6,29.43,West,281,2.0,7.0,93,0.00,,,2.31,520,WeatherCatV1.22B15,2013-11-27 22:52:00,
2013-11-27 17:53:00,34.3,32.5,29.44,West,281,2.0,7.0,93,0.00,,,2.31,520,WeatherCatV1.22B15,2013-11-27 22:53:00,
2013-11-27 17:55:00,34.3,32.5,29.44,West,281,3.0,6.0,93,0.00,,,2.31,520,WeatherCatV1.22B15,2013-11-27 22:55:00,
2013-11-27 17:56:00,34.2,32.4,29.44,West,281,3.0,6.0,93,0.00,,,2.31,520,WeatherCatV1.22B15,2013-11-27 22:56:00,
2013-11-27 17:57:00,34.2,32.4,29.44,West,281,2.0,3.0,93,0.00,,,2.31,520,WeatherCatV1.22B15,2013-11-27 22:57:00,
2013-11-27 17:58:00,34.2,32.7,29.44,West,281,2.0,5.0,94,0.00,,,2.31,520,WeatherCatV1.22B15,2013-11-27 22:58:00,
2013-11-27 18:00:00,34.2,32.7,29.45,West,281,4.0,7.0,94,0.00,,,2.31,520,WeatherCatV1.22B15,2013-11-27 23:00:00,
2013-11-27 18:01:00,34.2,32.7,29.45,West,281,4.0,7.0,94,0.00,,,2.31,520,WeatherCatV1.22B15,2013-11-27 23:01:00,
2013-11-27 18:02:00,34.1,32.6,29.45,West,281,4.0,9.0,94,0.00,,,2.31,520,WeatherCatV1.22B15,2013-11-27 23:02:00,
2013-11-27 18:04:00,34.1,32.6,29.45,West,281,3.0,3.0,94,0.00,,,2.31,520,WeatherCatV1.22B15,2013-11-27 23:04:00,
2013-11-27 18:05:00,34.1,32.6,29.45,West,281,2.0,4.0,94,0.00,,,2.31,520,WeatherCatV1.22B15,2013-11-27 23:05:00,
2013-11-27 18:06:00,34.0,32.5,29.45,West,281,2.0,6.0,94,0.00,,,2.31,520,WeatherCatV1.22B15,2013-11-27 23:06:00,
2013-11-27 18:07:00,34.0,32.5,29.46,West,281,4.0,5.0,94,0.00,,,2.31,520,WeatherCatV1.22B15,2013-11-27 23:07:00,
2013-11-27 18:09:00,34.0,32.5,29.46,West,281,6.0,6.0,94,0.00,,,2.31,520,WeatherCatV1.22B15,2013-11-27 23:09:00,
2013-11-27 18:10:00,33.9,32.4,29.46,West,281,3.0,7.0,94,0.00,,,2.31,520,WeatherCatV1.22B15,2013-11-27 23:10:00,
2013-11-27 18:11:00,33.9,32.4,29.47,West,281,2.0,7.0,94,0.00,,,2.31,520,WeatherCatV1.22B15,2013-11-27 23:11:00,
2013-11-27 18:13:00,33.9,32.4,29.47,West,281,3.0,4.0,94,0.00,,,2.31,520,WeatherCatV1.22B15,2013-11-27 23:13:00,
2013-11-27 18:14:00,33.9,32.4,29.47,West,281,2.0,4.0,94,0.00,,,2.32,520,WeatherCatV1.22B15,2013-11-27 23:14:00,
2013-11-27 18:15:00,33.9,32.4,29.47,West,281,4.0,5.0,94,0.00,,,2.32,520,WeatherCatV1.22B15,2013-11-27 23:15:00,
2013-11-27 18:16:00,33.9,32.4,29.46,West,281,2.0,5.0,94,0.00,,,2.32,520,WeatherCatV1.22B15,2013-11-27 23:16:00,
2013-11-27 18:17:00,33.9,32.4,29.47,West,281,2.0,5.0,94,0.00,,,2.32,520,WeatherCatV1.22B15,2013-11-27 23:17:00,
2013-11-27 18:18:00,33.9,32.4,29.47,West,281,4.0,6.0,94,0.00,,,2.32,520,WeatherCatV1.22B15,2013-11-27 23:18:00,
2013-11-27 18:19:00,33.9,32.4,29.46,West,281,5.0,8.0,94,0.00,,,2.32,520,WeatherCatV1.22B15,2013-11-27 23:19:00,
2013-11-27 18:20:00,33.9,32.4,29.46,West,281,2.0,6.0,94,0.00,,,2.32,520,WeatherCatV1.22B15,2013-11-27 23:20:00,
2013-11-27 18:21:00,33.9,32.4,29.47,West,281,2.0,4.0,94,0.00,,,2.32,520,WeatherCatV1.22B15,2013-11-27 23:21:00,
2013-11-27 18:22:00,34.0,32.5,29.47,West,280,4.0,12.0,94,0.00,,,2.32,520,WeatherCatV1.22B15,2013-11-27 23:22:00,
2013-11-27 18:23:00,34.0,32.5,29.47,West,280,4.0,12.0,94,0.00,,,2.32,520,WeatherCatV1.22B15,2013-11-27 23:23:00,
2013-11-27 18:24:00,34.0,32.5,29.47,West,280,2.0,12.0,94,0.00,,,2.32,520,WeatherCatV1.22B15,2013-11-27 23:24:00,
2013-11-27 18:25:00,34.0,32.5,29.47,West,280,3.0,6.0,94,0.00,,,2.32,520,WeatherCatV1.22B15,2013-11-27 23:25:00,
2013-11-27 18:27:00,34.0,32.5,29.48,West,279,4.0,9.0,94,0.00,,,2.32,520,WeatherCatV1.22B15,2013-11-27 23:27:00,
2013-11-27 18:28:00,34.0,32.5,29.48,West,280,4.0,5.0,94,0.00,,,2.32,520,WeatherCatV1.22B15,2013-11-27 23:28:00,
2013-11-27 18:29:00,34.0,32.5,29.48,West,280,2.0,5.0,94,0.00,,,2.32,520,WeatherCatV1.22B15,2013-11-27 23:29:00,
2013-11-27 18:30:00,34.0,32.5,29.47,West,280,5.0,5.0,94,0.00,,,2.32,520,WeatherCatV1.22B15,2013-11-27 23:30:00,
2013-11-27 18:32:00,34.0,32.5,29.47,West,279,7.0,12.0,94,0.00,,,2.32,520,WeatherCatV1.22B15,2013-11-27 23:32:00,
2013-11-27 18:33:00,34.0,32.5,29.47,West,280,2.0,12.0,94,0.00,,,2.32,520,WeatherCatV1.22B15,2013-11-27 23:33:00,
2013-11-27 18:34:00,34.0,32.5,29.47,West,279,4.0,4.0,94,0.00,,,2.32,520,WeatherCatV1.22B15,2013-11-27 23:34:00,
2013-11-27 18:36:00,34.0,32.2,29.47,West,279,3.0,7.0,93,0.00,,,2.32,520,WeatherCatV1.22B15,2013-11-27 23:36:00,
2013-11-27 18:37:00,34.1,32.3,29.47,West,280,3.0,12.0,93,0.00,,,2.32,520,WeatherCatV1.22B15,2013-11-27 23:37:00,
2013-11-27 18:38:00,34.1,32.3,29.48,West,280,4.0,12.0,93,0.00,,,2.32,520,WeatherCatV1.22B15,2013-11-27 23:38:00,
2013-11-27 18:39:00,34.1,32.3,29.48,West,279,3.0,8.0,93,0.00,,,2.32,520,WeatherCatV1.22B15,2013-11-27 23:39:00,
2013-11-27 18:40:00,34.1,32.3,29.48,West,280,4.0,7.0,93,0.00,,,2.32,520,WeatherCatV1.22B15,2013-11-27 23:40:00,
2013-11-27 18:41:00,34.1,32.3,29.48,West,279,2.0,7.0,93,0.00,,,2.32,520,WeatherCatV1.22B15,2013-11-27 23:41:00,
2013-11-27 18:42:00,34.1,32.3,29.48,West,279,2.0,4.0,93,0.00,,,2.32,520,WeatherCatV1.22B15,2013-11-27 23:42:00,
2013-11-27 18:43:00,34.1,32.3,29.48,West,279,2.0,3.0,93,0.00,,,2.32,520,WeatherCatV1.22B15,2013-11-27 23:43:00,
2013-11-27 18:44:00,34.1,32.3,29.48,West,279,4.0,5.0,93,0.00,,,2.32,520,WeatherCatV1.22B15,2013-11-27 23:44:00,
2013-11-27 18:45:00,34.0,32.2,29.48,West,280,3.0,5.0,93,0.00,,,2.32,520,WeatherCatV1.22B15,2013-11-27 23:45:00,
2013-11-27 18:46:00,34.1,32.3,29.49,West,279,4.0,6.0,93,0.00,,,2.32,520,WeatherCatV1.22B15,2013-11-27 23:46:00,
2013-11-27 18:48:00,34.0,32.2,29.49,West,280,5.0,11.0,93,0.00,,,2.32,520,WeatherCatV1.22B15,2013-11-27 23:48:00,
2013-11-27 18:50:00,34.1,32.3,29.49,West,279,4.0,7.0,93,0.00,,,2.32,520,WeatherCatV1.22B15,2013-11-27 23:50:00,
2013-11-27 18:51:00,34.1,32.3,29.49,West,280,3.0,7.0,93,0.00,,,2.32,520,WeatherCatV1.22B15,2013-11-27 23:51:00,
2013-11-27 18:53:00,34.1,32.3,29.49,West,280,4.0,6.0,93,0.00,,,2.32,520,WeatherCatV1.22B15,2013-11-27 23:53:00,
2013-11-27 18:54:00,34.1,32.3,29.49,West,280,3.0,6.0,93,0.00,,,2.32,520,WeatherCatV1.22B15,2013-11-27 23:54:00,
2013-11-27 18:55:00,34.1,32.0,29.49,West,280,3.0,6.0,92,0.00,,,2.32,520,WeatherCatV1.22B15,2013-11-27 23:55:00,
2013-11-27 18:56:00,34.1,32.0,29.49,West,280,3.0,10.0,92,0.00,,,2.32,520,WeatherCatV1.22B15,2013-11-27 23:56:00,
2013-11-27 18:58:00,34.1,32.0,29.49,West,279,4.0,4.0,92,0.00,,,2.32,520,WeatherCatV1.22B15,2013-11-27 23:58:00,
2013-11-27 18:59:00,34.1,32.0,29.49,West,279,3.0,5.0,92,0.00,,,2.32,520,WeatherCatV1.22B15,2013-11-27 23:59:00,
2013-11-27 19:00:00,34.1,32.0,29.50,West,280,3.0,5.0,92,0.00,,,2.32,520,WeatherCatV1.22B15,2013-11-28 00:00:00,
2013-11-27 19:01:00,34.1,32.0,29.49,West,280,4.0,5.0,92,0.00,,,2.32,520,WeatherCatV1.22B15,2013-11-28 00:01:00,
2013-11-27 19:03:00,34.1,32.0,29.50,West,280,5.0,6.0,92,0.00,,,2.32,520,WeatherCatV1.22B15,2013-11-28 00:03:00,
2013-11-27 19:04:00,34.1,32.0,29.50,West,279,2.0,6.0,92,0.00,,,2.32,520,WeatherCatV1.22B15,2013-11-28 00:04:00,
2013-11-27 19:05:00,34.2,32.1,29.50,West,280,12.0,12.0,92,0.00,,,2.32,520,WeatherCatV1.22B15,2013-11-28 00:05:00,
2013-11-27 19:06:00,34.2,32.1,29.50,West,280,6.0,12.0,92,0.00,,,2.32,520,WeatherCatV1.22B15,2013-11-28 00:06:00,
2013-11-27 19:07:00,34.2,32.1,29.50,West,280,1.0,6.0,92,0.00,,,2.32,520,WeatherCatV1.22B15,2013-11-28 00:07:00,
2013-11-27 19:08:00,34.2,32.1,29.49,West,280,3.0,4.0,92,0.00,,,2.32,520,WeatherCatV1.22B15,2013-11-28 00:08:00,
2013-11-27 19:09:00,34.3,32.2,29.49,West,280,1.0,4.0,92,0.00,,,2.32,520,WeatherCatV1.22B15,2013-11-28 00:09:00,
2013-11-27 19:10:00,34.2,32.1,29.50,West,280,2.0,4.0,92,0.00,,,2.32,520,WeatherCatV1.22B15,2013-11-28 00:10:00,
2013-11-27 19:11:00,34.2,32.1,29.50,West,279,2.0,5.0,92,0.00,,,2.32,520,WeatherCatV1.22B15,2013-11-28 00:11:00,
2013-11-27 19:13:00,34.3,32.0,29.50,West,280,4.0,7.0,91,0.00,,,2.32,520,WeatherCatV1.22B15,2013-11-28 00:13:00,
2013-11-27 19:14:00,34.3,32.0,29.50,West,280,5.0,5.0,91,0.00,,,2.32,520,WeatherCatV1.22B15,2013-11-28 00:14:00,
2013-11-27 19:15:00,34.3,32.0,29.50,West,279,3.0,7.0,91,0.00,,,2.32,520,WeatherCatV1.22B15,2013-11-28 00:15:00,
2013-11-27 19:16:00,34.3,31.7,29.50,West,280,2.0,5.0,90,0.00,,,2.32,520,WeatherCatV1.22B15,2013-11-28 00:16:00,
2013-11-27 19:18:00,34.4,31.8,29.50,West,279,4.0,5.0,90,0.00,,,2.32,520,WeatherCatV1.22B15,2013-11-28 00:18:00,
2013-11-27 19:19:00,34.4,31.8,29.50,West,280,5.0,6.0,90,0.00,,,2.32,520,WeatherCatV1.22B15,2013-11-28 00:19:00,
2013-11-27 19:20:00,34.4,31.8,29.50,West,279,3.0,6.0,90,0.00,,,2.32,520,WeatherCatV1.22B15,2013-11-28 00:20:00,
2013-11-27 19:22:00,34.5,31.9,29.50,West,279,5.0,9.0,90,0.00,,,2.32,520,WeatherCatV1.22B15,2013-11-28 00:22:00,
2013-11-27 19:24:00,34.5,31.9,29.50,West,280,2.0,6.0,90,0.00,,,2.32,520,WeatherCatV1.22B15,2013-11-28 00:24:00,
2013-11-27 19:25:00,34.5,31.6,29.50,West,279,3.0,8.0,89,0.00,,,2.32,520,WeatherCatV1.22B15,2013-11-28 00:25:00,
2013-11-27 19:27:00,34.5,31.6,29.51,West,280,4.0,7.0,89,0.00,,,2.32,520,WeatherCatV1.22B15,2013-11-28 00:27:00,
2013-11-27 19:29:00,34.5,31.6,29.51,West,280,3.0,6.0,89,0.00,,,2.32,520,WeatherCatV1.22B15,2013-11-28 00:29:00,
2013-11-27 19:30:00,34.6,31.7,29.51,West,280,2.0,6.0,89,0.00,,,2.32,520,WeatherCatV1.22B15,2013-11-28 00:30:00,
2013-11-27 19:32:00,34.6,31.7,29.51,West,280,3.0,7.0,89,0.00,,,2.32,520,WeatherCatV1.22B15,2013-11-28 00:32:00,
2013-11-27 19:34:00,34.6,31.7,29.51,West,279,2.0,3.0,89,0.00,,,2.32,520,WeatherCatV1.22B15,2013-11-28 00:34:00,
2013-11-27 19:36:00,34.6,31.7,29.51,West,280,2.0,4.0,89,0.00,,,2.32,520,WeatherCatV1.22B15,2013-11-28 00:36:00,
2013-11-27 19:37:00,34.6,31.7,29.51,West,279,4.0,4.0,89,0.00,,,2.32,520,WeatherCatV1.22B15,2013-11-28 00:37:00,
2013-11-27 19:39:00,34.6,31.4,29.51,West,279,3.0,7.0,88,0.00,,,2.32,520,WeatherCatV1.22B15,2013-11-28 00:39:00,
2013-11-27 19:41:00,34.6,31.4,29.51,West,280,3.0,4.0,88,0.00,,,2.32,520,WeatherCatV1.22B15,2013-11-28 00:41:00,
2013-11-27 19:42:00,34.5,31.3,29.51,West,279,5.0,7.0,88,0.00,,,2.32,520,WeatherCatV1.22B15,2013-11-28 00:42:00,
2013-11-27 19:44:00,34.6,31.4,29.51,West,280,1.0,3.0,88,0.00,,,2.32,520,WeatherCatV1.22B15,2013-11-28 00:44:00,
2013-11-27 19:46:00,34.5,31.3,29.51,West,280,4.0,4.0,88,0.00,,,2.32,520,WeatherCatV1.22B15,2013-11-28 00:46:00,
2013-11-27 19:47:00,34.5,31.3,29.52,West,280,2.0,4.0,88,0.00,,,2.32,520,WeatherCatV1.22B15,2013-11-28 00:47:00,
2013-11-27 19:49:00,34.5,31.0,29.52,West,280,3.0,5.0,87,0.00,,,2.32,520,WeatherCatV1.22B15,2013-11-28 00:49:00,
2013-11-27 19:50:00,34.5,31.0,29.52,West,279,1.0,5.0,87,0.00,,,2.32,520,WeatherCatV1.22B15,2013-11-28 00:50:00,
2013-11-27 19:51:00,34.5,31.0,29.51,West,280,3.0,8.0,87,0.00,,,2.32,520,WeatherCatV1.22B15,2013-11-28 00:51:00,
2013-11-27 19:52:00,34.5,31.0,29.51,West,279,3.0,4.0,87,0.00,,,2.32,520,WeatherCatV1.22B15,2013-11-28 00:52:00,
2013-11-27 19:53:00,34.5,30.8,29.52,West,280,4.0,7.0,86,0.00,,,2.32,520,WeatherCatV1.22B15,2013-11-28 00:53:00,
2013-11-27 19:54:00,34.5,30.8,29.52,West,280,2.0,7.0,86,0.00,,,2.32,520,WeatherCatV1.22B15,2013-11-28 00:54:00,
2013-11-27 19:56:00,34.5,30.8,29.52,WSW,252,5.0,14.0,86,0.00,,,2.32,520,WeatherCatV1.22B15,2013-11-28 00:56:00,
2013-11-27 19:57:00,34.5,30.5,29.52,WSW,252,6.0,14.0,85,0.00,,,2.32,520,WeatherCatV1.22B15,2013-11-28 00:57:00,
2013-11-27 19:58:00,34.5,30.8,29.52,WSW,252,3.0,6.0,86,0.00,,,2.32,520,WeatherCatV1.22B15,2013-11-28 00:58:00,
2013-11-27 19:59:00,34.5,30.8,29.52,WSW,251,4.0,5.0,86,0.00,,,2.32,520,WeatherCatV1.22B15,2013-11-28 00:59:00,
2013-11-27 20:01:00,34.5,30.8,29.52,WSW,251,2.0,5.0,86,0.00,,,2.32,520,WeatherCatV1.22B15,2013-11-28 01:01:00,
2013-11-27 20:02:00,34.5,30.8,29.52,WSW,252,7.0,7.0,86,0.00,,,2.32,520,WeatherCatV1.22B15,2013-11-28 01:02:00,
2013-11-27 20:04:00,34.5,30.5,29.53,WSW,252,2.0,11.0,85,0.00,,,2.32,520,WeatherCatV1.22B15,2013-11-28 01:04:00,
2013-11-27 20:07:00,34.4,30.4,29.53,WSW,252,2.0,6.0,85,0.00,,,2.32,520,WeatherCatV1.22B15,2013-11-28 01:07:00,
2013-11-27 20:09:00,34.3,30.6,29.54,WSW,252,3.0,5.0,86,0.00,,,2.32,520,WeatherCatV1.22B15,2013-11-28 01:09:00,
2013-11-27 20:10:00,34.3,30.6,29.54,WSW,252,1.0,6.0,86,0.00,,,2.32,520,WeatherCatV1.22B15,2013-11-28 01:10:00,
2013-11-27 20:12:00,34.2,30.5,29.54,WSW,252,4.0,5.0,86,0.00,,,2.32,520,WeatherCatV1.22B15,2013-11-28 01:12:00,
2013-11-27 20:14:00,34.1,29.8,29.54,WSW,252,2.0,7.0,84,0.00,,,2.32,520,WeatherCatV1.22B15,2013-11-28 01:14:00,
2013-11-27 20:15:00,34.1,30.1,29.54,WSW,252,2.0,7.0,85,0.00,,,2.32,520,WeatherCatV1.22B15,2013-11-28 01:15:00,
2013-11-27 20:17:00,34.1,29.8,29.53,WSW,252,5.0,7.0,84,0.00,,,2.32,520,WeatherCatV1.22B15,2013-11-28 01:17:00,
2013-11-27 20:18:00,34.1,29.8,29.54,WSW,252,4.0,7.0,84,0.00,,,2.32,520,WeatherCatV1.22B15,2013-11-28 01:18:00,
2013-11-27 20:20:00,34.0,29.7,29.55,WSW,251,1.0,5.0,84,0.00,,,2.32,520,WeatherCatV1.22B15,2013-11-28 01:20:00,
2013-11-27 20:22:00,33.9,29.6,29.55,WSW,251,3.0,6.0,84,0.00,,,2.32,520,WeatherCatV1.22B15,2013-11-28 01:22:00,
2013-11-27 20:23:00,33.9,29.3,29.55,WSW,252,3.0,6.0,83,0.00,,,2.32,520,WeatherCatV1.22B15,2013-11-28 01:23:00,
2013-11-27 20:25:00,33.9,29.3,29.54,WSW,251,5.0,9.0,83,0.00,,,2.32,520,WeatherCatV1.22B15,2013-11-28 01:25:00,
2013-11-27 20:27:00,33.8,29.2,29.55,WSW,251,1.0,5.0,83,0.00,,,2.32,520,WeatherCatV1.22B15,2013-11-28 01:27:00,
2013-11-27 20:28:00,33.8,29.2,29.55,WSW,252,2.0,5.0,83,0.00,,,2.32,520,WeatherCatV1.22B15,2013-11-28 01:28:00,
2013-11-27 20:30:00,33.7,29.1,29.55,WSW,251,4.0,7.0,83,0.00,,,2.32,520,WeatherCatV1.22B15,2013-11-28 01:30:00,
2013-11-27 20:33:00,33.7,28.8,29.56,WSW,252,5.0,6.0,82,0.00,,,2.32,520,WeatherCatV1.22B15,2013-11-28 01:33:00,
2013-11-27 20:35:00,33.7,28.8,29.56,WSW,252,3.0,8.0,82,0.00,,,2.32,520,WeatherCatV1.22B15,2013-11-28 01:35:00,
2013-11-27 20:38:00,33.7,28.5,29.57,WSW,252,2.0,7.0,81,0.00,,,2.32,520,WeatherCatV1.22B15,2013-11-28 01:38:00,
2013-11-27 20:39:00,33.6,28.4,29.57,WSW,252,2.0,6.0,81,0.00,,,2.32,520,WeatherCatV1.22B15,2013-11-28 01:39:00,
2013-11-27 20:40:00,33.6,28.7,29.57,WSW,251,1.0,4.0,82,0.00,,,2.32,520,WeatherCatV1.22B15,2013-11-28 01:40:00,
2013-11-27 20:41:00,33.6,28.7,29.57,WSW,252,1.0,4.0,82,0.00,,,2.32,520,WeatherCatV1.22B15,2013-11-28 01:41:00,
2013-11-27 20:43:00,33.6,29.0,29.57,WSW,252,2.0,5.0,83,0.00,,,2.32,520,WeatherCatV1.22B15,2013-11-28 01:43:00,
2013-11-27 20:44:00,33.6,29.0,29.57,WSW,252,3.0,8.0,83,0.00,,,2.32,520,WeatherCatV1.22B15,2013-11-28 01:44:00,
2013-11-27 20:45:00,33.6,28.7,29.56,WSW,251,4.0,12.0,82,0.00,,,2.32,520,WeatherCatV1.22B15,2013-11-28 01:45:00,
2013-11-27 20:46:00,33.6,28.4,29.57,WSW,251,3.0,12.0,81,0.00,,,2.32,520,WeatherCatV1.22B15,2013-11-28 01:46:00,
2013-11-27 20:48:00,33.6,28.7,29.57,WSW,251,7.0,7.0,82,0.00,,,2.32,520,WeatherCatV1.22B15,2013-11-28 01:48:00,
2013-11-27 20:49:00,33.6,28.4,29.57,WSW,252,3.0,7.0,81,0.00,,,2.32,520,WeatherCatV1.22B15,2013-11-28 01:49:00,
2013-11-27 20:50:00,33.6,28.4,29.57,WSW,251,3.0,11.0,81,0.00,,,2.32,520,WeatherCatV1.22B15,2013-11-28 01:50:00,
2013-11-27 20:52:00,33.5,28.0,29.57,WSW,252,5.0,11.0,80,0.00,,,2.32,520,WeatherCatV1.22B15,2013-11-28 01:52:00,
2013-11-27 20:53:00,33.5,28.3,29.57,WSW,252,5.0,11.0,81,0.00,,,2.32,520,WeatherCatV1.22B15,2013-11-28 01:53:00,
2013-11-27 20:54:00,33.5,28.0,29.57,WSW,252,10.0,11.0,80,0.00,,,2.32,520,WeatherCatV1.22B15,2013-11-28 01:54:00,
2013-11-27 20:55:00,33.5,27.7,29.58,WSW,251,5.0,11.0,79,0.00,,,2.32,520,WeatherCatV1.22B15,2013-11-28 01:55:00,
2013-11-27 20:56:00,33.4,27.3,29.58,WSW,251,4.0,10.0,78,0.00,,,2.32,520,WeatherCatV1.22B15,2013-11-28 01:56:00,
2013-11-27 20:57:00,33.4,27.3,29.58,WSW,252,4.0,8.0,78,0.00,,,2.32,520,WeatherCatV1.22B15,2013-11-28 01:57:00,
2013-11-27 20:58:00,33.4,27.6,29.58,WSW,251,2.0,8.0,79,0.00,,,2.32,520,WeatherCatV1.22B15,2013-11-28 01:58:00,
2013-11-27 20:59:00,33.3,27.5,29.58,WSW,252,1.0,4.0,79,0.00,,,2.32,520,WeatherCatV1.22B15,2013-11-28 01:59:00,
2013-11-27 21:00:00,33.3,27.8,29.58,WSW,252,1.0,2.0,80,0.00,,,2.32,520,WeatherCatV1.22B15,2013-11-28 02:00:00,
2013-11-27 21:01:00,33.3,27.8,29.58,WSW,251,1.0,3.0,80,0.00,,,2.32,520,WeatherCatV1.22B15,2013-11-28 02:01:00,
2013-11-27 21:03:00,33.2,27.7,29.58,WSW,251,2.0,4.0,80,0.00,,,2.32,520,WeatherCatV1.22B15,2013-11-28 02:03:00,
2013-11-27 21:04:00,33.2,27.7,29.58,WSW,252,4.0,4.0,80,0.00,,,2.32,520,WeatherCatV1.22B15,2013-11-28 02:04:00,
2013-11-27 21:05:00,33.1,27.6,29.58,WSW,252,4.0,5.0,80,0.00,,,2.32,520,WeatherCatV1.22B15,2013-11-28 02:05:00,
2013-11-27 21:06:00,33.1,27.0,29.58,WSW,251,2.0,7.0,78,0.00,,,2.32,520,WeatherCatV1.22B15,2013-11-28 02:06:00,
2013-11-27 21:08:00,33.1,27.3,29.58,WSW,251,3.0,6.0,79,0.00,,,2.32,520,WeatherCatV1.22B15,2013-11-28 02:08:00,
2013-11-27 21:09:00,33.0,26.6,29.58,WSW,252,3.0,6.0,77,0.00,,,2.32,520,WeatherCatV1.22B15,2013-11-28 02:09:00,
2013-11-27 21:10:00,33.0,26.6,29.58,WSW,251,4.0,6.0,77,0.00,,,2.32,520,WeatherCatV1.22B15,2013-11-28 02:10:00,
2013-11-27 21:11:00,33.0,26.3,29.58,WSW,252,5.0,6.0,76,0.00,,,2.32,520,WeatherCatV1.22B15,2013-11-28 02:11:00,
2013-11-27 21:13:00,33.0,26.0,29.58,WSW,251,4.0,8.0,75,0.00,,,2.32,520,WeatherCatV1.22B15,2013-11-28 02:13:00,
2013-11-27 21:14:00,33.0,25.6,29.59,WSW,252,10.0,10.0,74,0.00,,,2.32,520,WeatherCatV1.22B15,2013-11-28 02:14:00,
2013-11-27 21:15:00,33.0,25.6,29.59,WSW,251,2.0,10.0,74,0.00,,,2.32,520,WeatherCatV1.22B15,2013-11-28 02:15:00,
2013-11-27 21:16:00,33.0,26.0,29.59,WSW,252,3.0,4.0,75,0.00,,,2.32,520,WeatherCatV1.22B15,2013-11-28 02:16:00,
2013-11-27 21:17:00,32.9,25.9,29.59,WSW,252,2.0,6.0,75,0.00,,,2.32,520,WeatherCatV1.22B15,2013-11-28 02:17:00,
2013-11-27 21:18:00,32.9,25.9,29.59,WSW,252,4.0,12.0,75,0.00,,,2.32,520,WeatherCatV1.22B15,2013-11-28 02:18:00,
2013-11-27 21:19:00,32.9,25.9,29.59,WSW,251,6.0,12.0,75,0.00,,,2.32,520,WeatherCatV1.22B15,2013-11-28 02:19:00,
2013-11-27 21:21:00,32.9,25.9,29.59,West,259,1.0,4.0,75,0.00,,,2.32,520,WeatherCatV1.22B15,2013-11-28 02:21:00,
2013-11-27 21:22:00,32.9,26.2,29.59,West,259,2.0,4.0,76,0.00,,,2.32,520,WeatherCatV1.22B15,2013-11-28 02:22:00,
2013-11-27 21:23:00,32.9,26.2,29.58,West,260,2.0,4.0,76,0.00,,,2.32,520,WeatherCatV1.22B15,2013-11-28 02:23:00,
2013-11-27 21:24:00,32.8,26.1,29.58,West,260,3.0,7.0,76,0.00,,,2.32,520,WeatherCatV1.22B15,2013-11-28 02:24:00,
2013-11-27 21:26:00,32.8,25.8,29.58,West,259,1.0,4.0,75,0.00,,,2.32,520,WeatherCatV1.22B15,2013-11-28 02:26:00,
2013-11-27 21:27:00,32.8,26.1,29.58,West,259,2.0,6.0,76,0.00,,,2.32,520,WeatherCatV1.22B15,2013-11-28 02:27:00,
2013-11-27 21:28:00,32.8,26.1,29.59,West,260,2.0,6.0,76,0.00,,,2.32,520,WeatherCatV1.22B15,2013-11-28 02:28:00,
2013-11-27 21:29:00,32.7,25.7,29.59,West,259,5.0,6.0,75,0.00,,,2.32,520,WeatherCatV1.22B15,2013-11-28 02:29:00,
2013-11-27 21:30:00,32.7,25.7,29.59,West,260,3.0,5.0,75,0.00,,,2.32,520,WeatherCatV1.22B15,2013-11-28 02:30:00,
2013-11-27 21:32:00,32.8,26.1,29.60,West,260,2.0,3.0,76,0.00,,,2.32,520,WeatherCatV1.22B15,2013-11-28 02:32:00,
2013-11-27 21:33:00,32.7,26.0,29.60,West,259,9.0,13.0,76,0.00,,,2.32,520,WeatherCatV1.22B15,2013-11-28 02:33:00,
2013-11-27 21:34:00,32.7,26.0,29.60,West,260,6.0,13.0,76,0.00,,,2.32,520,WeatherCatV1.22B15,2013-11-28 02:34:00,
2013-11-27 21:35:00,32.7,25.7,29.60,West,260,2.0,13.0,75,0.00,,,2.32,520,WeatherCatV1.22B15,2013-11-28 02:35:00,
2013-11-27 21:37:00,32.7,25.3,29.60,West,259,4.0,6.0,74,0.00,,,2.32,520,WeatherCatV1.22B15,2013-11-28 02:37:00,
2013-11-27 21:38:00,32.7,25.7,29.60,West,260,2.0,6.0,75,0.00,,,2.32,520,WeatherCatV1.22B15,2013-11-28 02:38:00,
2013-11-27 21:39:00,32.7,25.7,29.60,West,260,2.0,5.0,75,0.00,,,2.32,520,WeatherCatV1.22B15,2013-11-28 02:39:00,
2013-11-27 21:40:00,32.7,25.7,29.60,West,260,1.0,4.0,75,0.00,,,2.32,520,WeatherCatV1.22B15,2013-11-28 02:40:00,
2013-11-27 21:42:00,32.6,25.6,29.60,West,260,5.0,5.0,75,0.00,,,2.32,520,WeatherCatV1.22B15,2013-11-28 02:42:00,
2013-11-27 21:43:00,32.6,25.2,29.60,West,259,2.0,9.0,74,0.00,,,2.32,520,WeatherCatV1.22B15,2013-11-28 02:43:00,
2013-11-27 21:44:00,32.6,24.9,29.61,West,259,3.0,9.0,73,0.00,,,2.32,520,WeatherCatV1.22B15,2013-11-28 02:44:00,
2013-11-27 21:45:00,32.6,24.9,29.60,West,260,4.0,7.0,73,0.00,,,2.32,520,WeatherCatV1.22B15,2013-11-28 02:45:00,
2013-11-27 21:46:00,32.6,25.2,29.61,West,259,3.0,5.0,74,0.00,,,2.32,520,WeatherCatV1.22B15,2013-11-28 02:46:00,
2013-11-27 21:47:00,32.6,24.9,29.61,West,260,3.0,10.0,73,0.00,,,2.32,520,WeatherCatV1.22B15,2013-11-28 02:47:00,
2013-11-27 21:48:00,32.6,24.9,29.61,West,259,3.0,10.0,73,0.00,,,2.32,520,WeatherCatV1.22B15,2013-11-28 02:48:00,
2013-11-27 21:49:00,32.6,24.6,29.61,West,260,4.0,7.0,72,0.00,,,2.32,520,WeatherCatV1.22B15,2013-11-28 02:49:00,
2013-11-27 21:50:00,32.6,25.2,29.61,West,259,2.0,7.0,74,0.00,,,2.32,520,WeatherCatV1.22B15,2013-11-28 02:50:00,
2013-11-27 21:51:00,32.6,24.9,29.61,West,259,3.0,5.0,73,0.00,,,2.32,520,WeatherCatV1.22B15,2013-11-28 02:51:00,
2013-11-27 21:52:00,32.5,24.8,29.61,West,260,1.0,4.0,73,0.00,,,2.32,520,WeatherCatV1.22B15,2013-11-28 02:52:00,
2013-11-27 21:53:00,32.5,25.1,29.61,West,260,2.0,3.0,74,0.00,,,2.32,520,WeatherCatV1.22B15,2013-11-28 02:53:00,
2013-11-27 21:54:00,32.5,25.1,29.62,West,259,1.0,3.0,74,0.00,,,2.32,520,WeatherCatV1.22B15,2013-11-28 02:54:00,
2013-11-27 21:55:00,32.5,25.1,29.61,West,259,2.0,6.0,74,0.00,,,2.32,520,WeatherCatV1.22B15,2013-11-28 02:55:00,
2013-11-27 21:56:00,32.5,24.8,29.61,West,259,2.0,7.0,73,0.00,,,2.32,520,WeatherCatV1.22B15,2013-11-28 02:56:00,
2013-11-27 21:57:00,32.5,24.5,29.62,West,259,1.0,7.0,72,0.00,,,2.32,520,WeatherCatV1.22B15,2013-11-28 02:57:00,
2013-11-27 21:58:00,32.5,24.8,29.62,West,260,4.0,5.0,73,0.00,,,2.32,520,WeatherCatV1.22B15,2013-11-28 02:58:00,
2013-11-27 22:00:00,32.4,24.7,29.62,West,260,2.0,7.0,73,0.00,,,2.32,520,WeatherCatV1.22B15,2013-11-28 03:00:00,
2013-11-27 22:02:00,32.4,24.7,29.63,West,259,6.0,7.0,73,0.00,,,2.32,520,WeatherCatV1.22B15,2013-11-28 03:02:00,
2013-11-27 22:03:00,32.4,24.7,29.62,West,259,4.0,14.0,73,0.00,,,2.32,520,WeatherCatV1.22B15,2013-11-28 03:03:00,
2013-11-27 22:05:00,32.4,23.7,29.62,West,260,5.0,14.0,70,0.00,,,2.32,520,WeatherCatV1.22B15,2013-11-28 03:05:00,
2013-11-27 22:07:00,32.4,24.1,29.62,West,260,5.0,5.0,71,0.00,,,2.32,520,WeatherCatV1.22B15,2013-11-28 03:07:00,
2013-11-27 22:08:00,32.4,23.7,29.63,West,259,4.0,6.0,70,0.00,,,2.32,520,WeatherCatV1.22B15,2013-11-28 03:08:00,
2013-11-27 22:10:00,32.3,24.0,29.63,West,259,7.0,7.0,71,0.00,,,2.32,520,WeatherCatV1.22B15,2013-11-28 03:10:00,
2013-11-27 22:12:00,32.4,23.7,29.63,West,259,3.0,8.0,70,0.00,,,2.32,520,WeatherCatV1.22B15,2013-11-28 03:12:00,
2013-11-27 22:14:00,32.3,23.6,29.63,West,260,4.0,8.0,70,0.00,,,2.32,520,WeatherCatV1.22B15,2013-11-28 03:14:00,
2013-11-27 22:15:00,32.3,24.0,29.64,West,260,6.0,6.0,71,0.00,,,2.32,520,WeatherCatV1.22B15,2013-11-28 03:15:00,
2013-11-27 22:17:00,32.3,23.3,29.64,West,259,6.0,10.0,69,0.00,,,2.32,520,WeatherCatV1.22B15,2013-11-28 03:17:00,
2013-11-27 22:19:00,32.3,23.6,29.64,West,259,5.0,6.0,70,0.00,,,2.32,520,WeatherCatV1.22B15,2013-11-28 03:19:00,
2013-11-27 22:20:00,32.4,24.1,29.64,West,259,2.0,5.0,71,0.00,,,2.32,520,WeatherCatV1.22B15,2013-11-28 03:20:00,
2013-11-27 22:22:00,32.3,23.3,29.64,West,259,4.0,8.0,69,0.00,,,2.32,520,WeatherCatV1.22B15,2013-11-28 03:22:00,
2013-11-27 22:23:00,32.3,23.3,29.64,West,260,3.0,7.0,69,0.00,,,2.32,520,WeatherCatV1.22B15,2013-11-28 03:23:00,
2013-11-27 22:24:00,32.3,22.9,29.65,West,259,6.0,6.0,68,0.00,,,2.32,520,WeatherCatV1.22B15,2013-11-28 03:24:00,
2013-11-27 22:25:00,32.3,23.3,29.65,West,259,2.0,7.0,69,0.00,,,2.32,520,WeatherCatV1.22B15,2013-11-28 03:25:00,
2013-11-27 22:26:00,32.3,23.3,29.65,West,260,3.0,5.0,69,0.00,,,2.32,520,WeatherCatV1.22B15,2013-11-28 03:26:00,
2013-11-27 22:28:00,32.3,23.3,29.65,West,260,4.0,7.0,69,0.00,,,2.32,520,WeatherCatV1.22B15,2013-11-28 03:28:00,
2013-11-27 22:29:00,32.2,23.5,29.65,West,259,2.0,10.0,70,0.00,,,2.32,520,WeatherCatV1.22B15,2013-11-28 03:29:00,
2013-11-27 22:30:00,32.2,23.5,29.65,WSW,258,6.0,10.0,70,0.00,,,2.32,520,WeatherCatV1.22B15,2013-11-28 03:30:00,
2013-11-27 22:31:00,32.2,23.2,29.65,West,259,3.0,10.0,69,0.00,,,2.32,520,WeatherCatV1.22B15,2013-11-28 03:31:00,
2013-11-27 22:33:00,32.1,22.8,29.65,WSW,258,2.0,8.0,68,0.00,,,2.32,520,WeatherCatV1.22B15,2013-11-28 03:33:00,
2013-11-27 22:34:00,32.1,22.8,29.66,WSW,258,6.0,8.0,68,0.00,,,2.32,520,WeatherCatV1.22B15,2013-11-28 03:34:00,
2013-11-27 22:35:00,32.1,22.8,29.66,West,259,2.0,13.0,68,0.00,,,2.32,520,WeatherCatV1.22B15,2013-11-28 03:35:00,
2013-11-27 22:36:00,32.1,23.1,29.66,West,259,3.0,13.0,69,0.00,,,2.32,520,WeatherCatV1.22B15,2013-11-28 03:36:00,
2013-11-27 22:38:00,32.1,23.1,29.66,West,259,3.0,11.0,69,0.00,,,2.32,520,WeatherCatV1.22B15,2013-11-28 03:38:00,
2013-11-27 22:39:00,32.1,23.1,29.66,West,259,5.0,6.0,69,0.00,,,2.32,520,WeatherCatV1.22B15,2013-11-28 03:39:00,
2013-11-27 22:41:00,32.0,23.3,29.67,West,259,3.0,10.0,70,0.00,,,2.32,520,WeatherCatV1.22B15,2013-11-28 03:41:00,
2013-11-27 22:43:00,32.0,23.3,29.67,West,259,3.0,7.0,70,0.00,,,2.32,520,WeatherCatV1.22B15,2013-11-28 03:43:00,
2013-11-27 22:44:00,32.0,23.3,29.67,West,259,3.0,7.0,70,0.00,,,2.32,520,WeatherCatV1.22B15,2013-11-28 03:44:00,
2013-11-27 22:46:00,31.9,23.6,29.67,West,259,2.0,4.0,71,0.00,,,2.32,520,WeatherCatV1.22B15,2013-11-28 03:46:00,
2013-11-27 22:48:00,31.9,23.2,29.67,West,259,3.0,4.0,70,0.00,,,2.32,520,WeatherCatV1.22B15,2013-11-28 03:48:00,
2013-11-27 22:49:00,31.9,23.2,29.67,West,259,3.0,6.0,70,0.00,,,2.32,520,WeatherCatV1.22B15,2013-11-28 03:49:00,
2013-11-27 22:51:00,31.9,23.6,29.68,West,259,1.0,4.0,71,0.00,,,2.32,520,WeatherCatV1.22B15,2013-11-28 03:51:00,
2013-11-27 22:52:00,31.9,23.9,29.68,West,259,3.0,3.0,72,0.00,,,2.32,520,WeatherCatV1.22B15,2013-11-28 03:52:00,
2013-11-27 22:53:00,31.9,23.2,29.68,West,259,4.0,6.0,70,0.00,,,2.32,520,WeatherCatV1.22B15,2013-11-28 03:53:00,
2013-11-27 22:54:00,31.9,23.2,29.68,West,259,3.0,6.0,70,0.00,,,2.32,520,WeatherCatV1.22B15,2013-11-28 03:54:00,
2013-11-27 22:55:00,31.9,23.2,29.68,West,259,6.0,8.0,70,0.00,,,2.32,520,WeatherCatV1.22B15,2013-11-28 03:55:00,
2013-11-27 22:57:00,31.8,23.5,29.68,West,259,3.0,4.0,71,0.00,,,2.32,520,WeatherCatV1.22B15,2013-11-28 03:57:00,
2013-11-27 22:58:00,31.8,23.5,29.69,WSW,258,4.0,6.0,71,0.00,,,2.32,520,WeatherCatV1.22B15,2013-11-28 03:58:00,
2013-11-27 23:00:00,31.8,23.1,29.68,West,259,3.0,8.0,70,0.00,,,2.32,520,WeatherCatV1.22B15,2013-11-28 04:00:00,
2013-11-27 23:02:00,31.8,23.1,29.69,West,259,2.0,7.0,70,0.00,,,2.32,520,WeatherCatV1.22B15,2013-11-28 04:02:00,
2013-11-27 23:03:00,31.7,23.0,29.69,WSW,258,4.0,4.0,70,0.00,,,2.32,520,WeatherCatV1.22B15,2013-11-28 04:03:00,
2013-11-27 23:04:00,31.7,22.7,29.69,West,259,2.0,4.0,69,0.00,,,2.32,520,WeatherCatV1.22B15,2013-11-28 04:04:00,
2013-11-27 23:05:00,31.7,22.7,29.69,West,259,2.0,4.0,69,0.00,,,2.32,520,WeatherCatV1.22B15,2013-11-28 04:05:00,
2013-11-27 23:06:00,31.7,22.7,29.69,West,259,4.0,8.0,69,0.00,,,2.32,520,WeatherCatV1.22B15,2013-11-28 04:06:00,
2013-11-27 23:07:00,31.6,22.6,29.69,West,259,5.0,8.0,69,0.00,,,2.32,520,WeatherCatV1.22B15,2013-11-28 04:07:00,
2013-11-27 23:08:00,31.6,22.3,29.69,West,259,3.0,11.0,68,0.00,,,2.32,520,WeatherCatV1.22B15,2013-11-28 04:08:00,
2013-11-27 23:09:00,31.6,22.3,29.69,West,259,4.0,11.0,68,0.00,,,2.32,520,WeatherCatV1.22B15,2013-11-28 04:09:00,
2013-11-27 23:10:00,31.6,21.9,29.69,West,259,5.0,6.0,67,0.00,,,2.32,520,WeatherCatV1.22B15,2013-11-28 04:10:00,
2013-11-27 23:11:00,31.6,21.9,29.69,West,259,3.0,5.0,67,0.00,,,2.32,520,WeatherCatV1.22B15,2013-11-28 04:11:00,
2013-11-27 23:12:00,31.6,21.9,29.69,West,259,3.0,7.0,67,0.00,,,2.32,520,WeatherCatV1.22B15,2013-11-28 04:12:00,
2013-11-27 23:13:00,31.6,21.9,29.69,West,259,4.0,5.0,67,0.00,,,2.32,520,WeatherCatV1.22B15,2013-11-28 04:13:00,
2013-11-27 23:14:00,31.6,21.9,29.69,West,259,2.0,5.0,67,0.00,,,2.32,520,WeatherCatV1.22B15,2013-11-28 04:14:00,
2013-11-27 23:16:00,31.6,21.9,29.70,West,259,4.0,4.0,67,0.00,,,2.32,520,WeatherCatV1.22B15,2013-11-28 04:16:00,
2013-11-27 23:17:00,31.5,21.8,29.69,West,259,4.0,5.0,67,0.00,,,2.32,520,WeatherCatV1.22B15,2013-11-28 04:17:00,
2013-11-27 23:19:00,31.4,21.4,29.70,West,259,3.0,6.0,66,0.00,,,2.32,520,WeatherCatV1.22B15,2013-11-28 04:19:00,
2013-11-27 23:20:00,31.4,21.7,29.70,West,259,2.0,6.0,67,0.00,,,2.32,520,WeatherCatV1.22B15,2013-11-28 04:20:00,
2013-11-27 23:21:00,31.4,22.1,29.70,West,259,3.0,8.0,68,0.00,,,2.32,520,WeatherCatV1.22B15,2013-11-28 04:21:00,
2013-11-27 23:22:00,31.4,21.7,29.70,West,259,2.0,8.0,67,0.00,,,2.32,520,WeatherCatV1.22B15,2013-11-28 04:22:00,
2013-11-27 23:24:00,31.3,21.6,29.70,West,259,2.0,7.0,67,0.00,,,2.32,520,WeatherCatV1.22B15,2013-11-28 04:24:00,
2013-11-27 23:25:00,31.3,21.3,29.70,WSW,258,1.0,4.0,66,0.00,,,2.32,520,WeatherCatV1.22B15,2013-11-28 04:25:00,
2013-11-27 23:26:00,31.2,21.5,29.70,WSW,258,2.0,5.0,67,0.00,,,2.32,520,WeatherCatV1.22B15,2013-11-28 04:26:00,
2013-11-27 23:27:00,31.2,21.5,29.70,West,259,4.0,5.0,67,0.00,,,2.32,520,WeatherCatV1.22B15,2013-11-28 04:27:00,
2013-11-27 23:30:00,31.2,21.2,29.71,WSW,258,2.0,6.0,66,0.00,,,2.32,520,WeatherCatV1.22B15,2013-11-28 04:30:00,
2013-11-27 23:32:00,31.1,21.1,29.71,West,259,2.0,7.0,66,0.00,,,2.32,520,WeatherCatV1.22B15,2013-11-28 04:32:00,
2013-11-27 23:35:00,31.0,21.0,29.71,West,259,4.0,7.0,66,0.00,,,2.32,520,WeatherCatV1.22B15,2013-11-28 04:35:00,
2013-11-27 23:37:00,31.0,21.0,29.71,West,259,3.0,7.0,66,0.00,,,2.32,520,WeatherCatV1.22B15,2013-11-28 04:37:00,
2013-11-27 23:40:00,31.0,21.4,29.71,WSW,258,4.0,4.0,67,0.00,,,2.32,520,WeatherCatV1.22B15,2013-11-28 04:40:00,
2013-11-27 23:41:00,31.0,21.4,29.71,WSW,258,2.0,4.0,67,0.00,,,2.32,520,WeatherCatV1.22B15,2013-11-28 04:41:00,
2013-11-27 23:42:00,30.9,21.2,29.72,WSW,258,2.0,3.0,67,0.00,,,2.32,520,WeatherCatV1.22B15,2013-11-28 04:42:00,
2013-11-27 23:45:00,30.7,21.4,29.72,WSW,258,2.0,2.0,68,0.00,,,2.32,520,WeatherCatV1.22B15,2013-11-28 04:45:00,
2013-11-27 23:46:00,30.6,21.3,29.72,WSW,258,1.0,3.0,68,0.00,,,2.32,520,WeatherCatV1.22B15,2013-11-28 04:46:00,
2013-11-27 23:47:00,30.6,21.3,29.72,WSW,258,3.0,4.0,68,0.00,,,2.32,520,WeatherCatV1.22B15,2013-11-28 04:47:00,
2013-11-27 23:48:00,30.6,21.0,29.72,WSW,258,1.0,4.0,67,0.00,,,2.32,520,WeatherCatV1.22B15,2013-11-28 04:48:00,
2013-11-27 23:50:00,30.5,21.2,29.72,WSW,258,4.0,4.0,68,0.00,,,2.32,520,WeatherCatV1.22B15,2013-11-28 04:50:00,
2013-11-27 23:51:00,30.5,20.9,29.72,West,260,2.0,5.0,67,0.00,,,2.32,520,WeatherCatV1.22B15,2013-11-28 04:51:00,
2013-11-27 23:52:00,30.4,20.8,29.72,West,259,3.0,5.0,67,0.00,,,2.32,520,WeatherCatV1.22B15,2013-11-28 04:52:00,
2013-11-27 23:53:00,30.5,20.9,29.72,West,259,2.0,5.0,67,0.00,,,2.32,520,WeatherCatV1.22B15,2013-11-28 04:53:00,
2013-11-27 23:56:00,30.4,21.1,29.72,WSW,258,3.0,4.0,68,0.00,,,2.32,520,WeatherCatV1.22B15,2013-11-28 04:56:00,
2013-11-27 23:57:00,30.4,21.1,29.73,WSW,258,3.0,5.0,68,0.00,,,2.32,520,WeatherCatV1.22B15,2013-11-28 04:57:00,
2013-11-27 23:58:00,30.3,21.0,29.73,WSW,258,2.0,5.0,68,0.00,,,2.32,520,WeatherCatV1.22B15,2013-11-28 04:58:00,